N4ASP-13 Weather Reports


Display with metric or nautical units.
time (UTC)temp
F
wind
direction
speed
MPH
gust
MPH
rain 1hr
in
rain 24hr
in
rain mn
in
humidity
%
barometer
mb
20210805154026 74 344 1.0 6.0 0.00 0.00 0.00 72 947.1
20210805153927 74 21 1.0 6.0 0.00 0.00 0.00 72 947.1
20210805153826 74 53 1.0 6.0 0.00 0.00 0.00 71 947.1
20210805153726 74 325 1.0 4.0 0.00 0.00 0.00 71 947.1
20210805153625 74 91 1.0 4.0 0.00 0.00 0.00 69 947.1
20210805153528 74 36 1.0 4.0 0.00 0.00 0.00 71 947.1
20210805153423 74 33 2.0 5.0 0.00 0.00 0.00 69 947.1
20210805153322 74 34 2.0 7.0 0.00 0.00 0.00 70 947.0
20210805153223 74 348 2.0 8.0 0.00 0.00 0.00 71 947.0
20210805153123 74 36 2.0 8.0 0.00 0.00 0.00 70 947.1
20210805153022 74 38 2.0 8.0 0.00 0.00 0.00 69 947.1
20210805152923 74 38 2.0 8.0 0.00 0.00 0.00 69 947.1
20210805152821 74 355 3.0 8.0 0.00 0.00 0.00 69 947.1
20210805152723 74 307 2.0 8.0 0.00 0.00 0.00 69 947.1
20210805152621 74 24 3.0 8.0 0.00 0.00 0.00 69 947.1
20210805152521 74 27 3.0 8.0 0.00 0.00 0.00 69 947.1
20210805152424 74 85 3.0 8.0 0.00 0.00 0.00 69 947.0
20210805152322 74 71 2.0 8.0 0.00 0.00 0.00 74 947.0
20210805152223 74 331 2.0 5.0 0.00 0.00 0.00 75 947.1
20210805152123 74 211 3.0 6.0 0.00 0.00 0.00 76 947.0
20210805152023 74 40 3.0 7.0 0.00 0.00 0.00 76 946.9
20210805151922 74 271 3.0 7.0 0.00 0.00 0.00 74 946.9
20210805151822 74 88 3.0 7.0 0.00 0.00 0.00 70 947.0
20210805151722 74 78 3.0 7.0 0.00 0.00 0.00 71 947.1
20210805151624 74 44 3.0 7.0 0.00 0.00 0.00 71 947.0
20210805151517 74 53 2.0 7.0 0.00 0.00 0.00 68 947.1
20210805151418 74 49 2.0 7.0 0.00 0.00 0.00 68 947.0
20210805151318 74 53 2.0 7.0 0.00 0.00 0.00 65 947.0
20210805151218 74 70 2.0 7.0 0.00 0.00 0.00 70 947.0
20210805151120 74 74 1.0 7.0 0.00 0.00 0.00 72 946.9
20210805151019 74 76 1.0 5.0 0.00 0.00 0.00 70 947.0
20210805150918 74 30 1.0 5.0 0.00 0.00 0.00 75 947.0
20210805150818 74 0 2.0 5.0 0.00 0.00 0.00 75 947.0
20210805150717 74 355 1.0 5.0 0.00 0.00 0.00 75 946.9
20210805150618 74 38 2.0 5.0 0.00 0.00 0.00 74 947.1
20210805150519 73 39 2.0 5.0 0.00 0.00 0.00 72 946.9
20210805150418 74 36 2.0 5.0 0.00 0.00 0.00 73 947.0
20210805150317 74 36 2.0 5.0 0.00 0.00 0.00 74 946.9
20210805150218 74 61 2.0 5.0 0.00 0.00 0.00 74 946.9
20210805150118 74 57 2.0 5.0 0.00 0.00 0.00 77 946.9
20210805150020 73 66 3.0 6.0 0.00 0.00 0.00 74 946.9
20210805145918 73 31 3.0 6.0 0.00 0.00 0.00 73 946.9
20210805145822 73 92 3.0 6.0 0.00 0.00 0.00 74 946.9
20210805145720 73 326 3.0 6.0 0.00 0.00 0.00 76 946.9
20210805145615 73 55 3.0 6.0 0.00 0.00 0.00 78 946.8
20210805145514 73 46 2.0 6.0 0.00 0.00 0.00 79 946.9
20210805145414 72 22 2.0 6.0 0.00 0.00 0.00 77 946.9
20210805145314 72 67 2.0 6.0 0.00 0.00 0.00 79 946.9
20210805145213 72 90 2.0 6.0 0.00 0.00 0.00 76 946.9
20210805145114 72 70 2.0 6.0 0.00 0.00 0.00 75 946.9
20210805145014 72 75 2.0 6.0 0.00 0.00 0.00 79 947.0
20210805144914 72 51 2.0 6.0 0.00 0.00 0.00 76 946.9
20210805144814 72 307 2.0 6.0 0.00 0.00 0.00 79 947.0
20210805144715 71 348 2.0 6.0 0.00 0.00 0.00 77 947.0
20210805144615 72 351 2.0 6.0 0.00 0.00 0.00 75 947.0
20210805144514 72 332 2.0 6.0 0.00 0.00 0.00 75 947.0
20210805144414 72 331 2.0 6.0 0.00 0.00 0.00 77 947.0
20210805144314 72 0 2.0 6.0 0.00 0.00 0.00 79 947.0
20210805144215 71 355 2.0 4.0 0.00 0.00 0.00 79 946.9
20210805144114 71 347 2.0 4.0 0.00 0.00 0.00 76 947.0
20210805144014 71 339 2.0 4.0 0.00 0.00 0.00 79 947.0
20210805143914 71 351 2.0 4.0 0.00 0.00 0.00 76 947.0
20210805143816 71 0 2.0 4.0 0.00 0.00 0.00 78 946.9
20210805143710 71 340 1.0 4.0 0.00 0.00 0.00 77 946.9
20210805143610 71 336 1.0 3.0 0.00 0.00 0.00 78 946.9
20210805143509 72 331 1.0 4.0 0.00 0.00 0.00 76 947.0
20210805143410 72 331 2.0 4.0 0.00 0.00 0.00 78 946.9
20210805143311 72 324 2.0 5.0 0.00 0.00 0.00 81 947.0
20210805143210 71 42 2.0 5.0 0.00 0.00 0.00 81 947.0
20210805143109 71 29 2.0 5.0 0.00 0.00 0.00 80 947.0
20210805143011 71 5 2.0 5.0 0.00 0.00 0.00 80 946.9
20210805142910 71 21 2.0 5.0 0.00 0.00 0.00 80 947.0
20210805142811 71 13 2.0 5.0 0.00 0.00 0.00 80 946.9
20210805142709 71 60 2.0 5.0 0.00 0.00 0.00 81 946.9
20210805142609 71 12 2.0 5.0 0.00 0.00 0.00 81 946.9
20210805142510 71 345 2.0 5.0 0.00 0.00 0.00 81 947.0
20210805142410 71 318 2.0 5.0 0.00 0.00 0.00 82 947.0
20210805142309 71 11 2.0 5.0 0.00 0.00 0.00 82 946.9
20210805142210 71 32 2.0 5.0 0.00 0.00 0.00 82 946.8
20210805142110 70 36 2.0 5.0 0.00 0.00 0.00 82 946.9
20210805142012 70 22 2.0 5.0 0.00 0.00 0.00 82 946.9
20210805141911 70 326 2.0 5.0 0.00 0.00 0.00 82 946.9
20210805141806 70 123 2.0 5.0 0.00 0.00 0.00 83 946.8
20210805141707 70 346 2.0 5.0 0.00 0.00 0.00 81 946.8
20210805141607 70 351 2.0 5.0 0.00 0.00 0.00 84 946.8
20210805141507 70 41 2.0 5.0 0.00 0.00 0.00 83 946.8
20210805141406 70 13 2.0 5.0 0.00 0.00 0.00 82 946.8
20210805141307 70 40 2.0 5.0 0.00 0.00 0.00 82 946.8
20210805141206 70 95 2.0 5.0 0.00 0.00 0.00 82 946.7
20210805141106 70 17 2.0 5.0 0.00 0.00 0.00 83 946.8
20210805141007 70 0 2.0 5.0 0.00 0.00 0.00 83 946.7
20210805140905 70 337 2.0 5.0 0.00 0.00 0.00 82 946.8
20210805140807 70 355 2.0 3.0 0.00 0.00 0.00 82 946.7
20210805140706 70 355 2.0 3.0 0.00 0.00 0.00 82 946.7
20210805140606 70 0 2.0 5.0 0.00 0.00 0.00 83 946.7
20210805140508 70 46 1.0 5.0 0.00 0.00 0.00 84 946.7
20210805140406 70 21 1.0 5.0 0.00 0.00 0.00 83 946.8
20210805140306 69 0 1.0 5.0 0.00 0.00 0.00 83 946.7
20210805140205 69 355 1.0 5.0 0.00 0.00 0.00 85 946.7
20210805140105 69 28 1.0 5.0 0.00 0.00 0.00 84 946.8
20210805140010 69 25 1.0 5.0 0.00 0.00 0.00 84 946.8
20210805135903 69 24 1.0 5.0 0.00 0.00 0.00 83 946.8
20210805135801 69 342 1.0 5.0 0.00 0.00 0.00 83 946.8
20210805135701 69 332 1.0 5.0 0.00 0.00 0.00 84 946.8
20210805135601 69 24 2.0 4.0 0.00 0.00 0.00 84 946.7
20210805135503 69 17 2.0 4.0 0.00 0.00 0.00 83 946.8
20210805135401 69 14 2.0 4.0 0.00 0.00 0.00 83 946.7
20210805135305 69 61 2.0 4.0 0.00 0.00 0.00 83 946.8
20210805135204 69 11 2.0 4.0 0.00 0.00 0.00 84 946.7
20210805135103 69 306 2.0 4.0 0.00 0.00 0.00 83 946.7
20210805135001 69 349 2.0 4.0 0.00 0.00 0.00 83 946.7
20210805134901 69 347 2.0 4.0 0.00 0.00 0.00 84 946.7
20210805134801 69 42 2.0 4.0 0.00 0.00 0.00 83 946.8
20210805134701 69 348 2.0 5.0 0.00 0.00 0.00 84 946.7
20210805134602 69 334 2.0 5.0 0.00 0.00 0.00 83 946.7
20210805134502 69 5 2.0 5.0 0.00 0.00 0.00 83 946.7
20210805134402 69 334 2.0 5.0 0.00 0.00 0.00 83 946.7
20210805134303 69 11 2.0 5.0 0.00 0.00 0.00 83 946.6
20210805134201 69 351 2.0 5.0 0.00 0.00 0.00 84 946.6
20210805134103 69 5 1.0 5.0 0.00 0.00 0.00 83 946.6
20210805133958 69 46 1.0 5.0 0.00 0.00 0.00 84 946.6
20210805133858 69 31 2.0 5.0 0.00 0.00 0.00 84 946.7
20210805133759 69 294 2.0 5.0 0.00 0.00 0.00 84 946.6
20210805133658 69 330 1.0 4.0 0.00 0.00 0.00 84 946.7
20210805133558 69 26 1.0 4.0 0.00 0.00 0.00 84 946.7
20210805133458 68 28 1.0 4.0 0.00 0.00 0.00 84 946.7
20210805133357 68 39 1.0 4.0 0.00 0.00 0.00 84 946.7
20210805133257 68 53 1.0 4.0 0.00 0.00 0.00 83 946.7
20210805133158 68 355 2.0 4.0 0.00 0.00 0.00 83 946.6
20210805133059 68 53 2.0 4.0 0.00 0.00 0.00 84 946.6
20210805132958 69 19 2.0 4.0 0.00 0.00 0.00 84 946.7
20210805132856 69 17 2.0 4.0 0.00 0.00 0.00 83 946.6
20210805132751 69 70 2.0 4.0 0.00 0.00 0.00 83 946.6
20210805132651 69 346 2.0 4.0 0.00 0.00 0.00 84 946.6
20210805132552 69 0 2.0 4.0 0.00 0.00 0.00 83 946.6
20210805132448 69 51 2.0 4.0 0.00 0.00 0.00 83 946.6
20210805132349 69 345 2.0 4.0 0.00 0.00 0.00 83 946.6
20210805132244 69 346 3.0 4.0 0.00 0.00 0.00 83 946.5
20210805132144 69 52 3.0 4.0 0.00 0.00 0.00 83 946.6
20210805132044 69 78 3.0 4.0 0.00 0.00 0.00 82 946.5
20210805131946 69 86 3.0 7.0 0.00 0.00 0.00 81 946.6
20210805131840 69 118 3.0 7.0 0.00 0.00 0.00 83 946.6
20210805131735 68 96 3.0 7.0 0.00 0.00 0.00 83 946.5
20210805131633 68 88 2.0 7.0 0.00 0.00 0.00 83 946.6
20210805131534 68 83 2.0 7.0 0.00 0.00 0.00 83 946.6
20210805131434 68 88 2.0 7.0 0.00 0.00 0.00 82 946.6
20210805131334 68 95 2.0 7.0 0.00 0.00 0.00 83 946.5
20210805131231 68 99 2.0 7.0 0.00 0.00 0.00 84 946.6
20210805131127 68 94 2.0 7.0 0.00 0.00 0.00 85 946.5
20210805131027 68 62 1.0 7.0 0.00 0.00 0.00 84 946.5
20210805130928 68 119 1.0 3.0 0.00 0.00 0.00 83 946.5
20210805130826 68 337 1.0 3.0 0.00 0.00 0.00 83 946.5
20210805130720 68 334 1.0 3.0 0.00 0.00 0.00 84 946.5
20210805130622 67 333 1.0 3.0 0.00 0.00 0.00 84 946.4
20210805130519 67 331 1.0 3.0 0.00 0.00 0.00 84 946.5
20210805130417 67 319 1.0 3.0 0.00 0.00 0.00 83 946.4
20210805130318 67 326 1.0 3.0 0.00 0.00 0.00 83 946.4
20210805130214 67 325 1.0 3.0 0.00 0.00 0.00 84 946.4
20210805130111 67 24 1.0 3.0 0.00 0.00 0.00 84 946.4
20210805130013 67 29 1.0 3.0 0.00 0.00 0.00 83 946.4
20210805125912 67 345 1.0 3.0 0.00 0.00 0.00 84 946.4
20210805125811 67 36 1.0 3.0 0.00 0.00 0.00 84 946.5
20210805125704 67 355 1.0 3.0 0.00 0.00 0.00 84 946.4
20210805125604 67 33 2.0 4.0 0.00 0.00 0.00 83 946.4
20210805125504 68 346 2.0 4.0 0.00 0.00 0.00 84 946.3
20210805125403 68 29 2.0 4.0 0.00 0.00 0.00 84 946.3
20210805125305 67 41 2.0 4.0 0.00 0.00 0.00 85 946.3
20210805125200 67 37 2.0 4.0 0.00 0.00 0.00 84 946.4
20210805125059 67 17 2.0 4.0 0.00 0.00 0.00 84 946.4
20210805124959 67 28 2.0 4.0 0.00 0.00 0.00 84 946.3
20210805124859 67 20 2.0 4.0 0.00 0.00 0.00 84 946.4
20210805124756 67 324 2.0 5.0 0.00 0.00 0.00 83 946.5
20210805124651 68 313 2.0 5.0 0.00 0.00 0.00 83 946.4
20210805124551 68 323 2.0 5.0 0.00 0.00 0.00 83 946.5
20210805124450 68 80 3.0 5.0 0.00 0.00 0.00 82 946.4
20210805124348 68 72 3.0 5.0 0.00 0.00 0.00 82 946.4
20210805124249 68 61 3.0 5.0 0.00 0.00 0.00 82 946.3
20210805124145 68 9 3.0 6.0 0.00 0.00 0.00 83 946.3
20210805124046 68 68 3.0 6.0 0.00 0.00 0.00 84 946.4
20210805123945 68 29 3.0 6.0 0.00 0.00 0.00 85 946.3
20210805123845 67 55 3.0 6.0 0.00 0.00 0.00 84 946.3
20210805123740 67 69 3.0 6.0 0.00 0.00 0.00 84 946.3
20210805123634 67 82 3.0 6.0 0.00 0.00 0.00 83 946.2
20210805123533 67 86 3.0 6.0 0.00 0.00 0.00 83 946.2
20210805123435 67 88 3.0 6.0 0.00 0.00 0.00 84 946.2
20210805123335 67 79 3.0 6.0 0.00 0.00 0.00 84 946.2
20210805123234 67 85 3.0 5.0 0.00 0.00 0.00 83 946.3
20210805123128 67 70 2.0 5.0 0.00 0.00 0.00 86 946.2
20210805123028 66 82 2.0 5.0 0.00 0.00 0.00 84 946.2
20210805122929 66 72 2.0 5.0 0.00 0.00 0.00 86 946.3
20210805122827 66 71 2.0 4.0 0.00 0.00 0.00 85 946.1
20210805122728 65 92 2.0 4.0 0.00 0.00 0.00 85 946.2
20210805122630 65 98 2.0 4.0 0.00 0.00 0.00 85 946.2
20210805122527 65 97 2.0 4.0 0.00 0.00 0.00 84 946.2
20210805122424 65 98 2.0 4.0 0.00 0.00 0.00 85 946.2
20210805122330 65 104 3.0 4.0 0.00 0.00 0.00 85 946.2
20210805122224 65 107 2.0 4.0 0.00 0.00 0.00 85 946.2
20210805122124 65 94 2.0 4.0 0.00 0.00 0.00 84 946.2
20210805122023 65 92 2.0 4.0 0.00 0.00 0.00 85 946.2
20210805121928 65 76 2.0 4.0 0.00 0.00 0.00 85 946.1
20210805121821 65 102 2.0 4.0 0.00 0.00 0.00 85 946.1
20210805121721 65 93 2.0 4.0 0.00 0.00 0.00 84 946.2
20210805121620 65 86 2.0 4.0 0.00 0.00 0.00 85 946.2
20210805121522 65 100 2.0 4.0 0.00 0.00 0.00 85 946.1
20210805121416 65 69 2.0 4.0 0.00 0.00 0.00 86 946.1
20210805121314 64 103 2.0 3.0 0.00 0.00 0.00 86 946.1
20210805121213 64 113 2.0 3.0 0.00 0.00 0.00 85 946.1
20210805121115 64 113 2.0 3.0 0.00 0.00 0.00 86 946.2
20210805121012 64 107 2.0 3.0 0.00 0.00 0.00 86 946.1
20210805120909 64 85 2.0 3.0 0.00 0.00 0.00 86 946.2
20210805120807 64 80 2.0 4.0 0.00 0.00 0.00 86 946.1
20210805120704 64 80 2.0 4.0 0.00 0.00 0.00 85 946.0
20210805120600 64 80 2.0 4.0 0.00 0.00 0.00 85 946.0
20210805120457 64 79 2.0 4.0 0.00 0.00 0.00 85 946.0
20210805120359 64 79 2.0 4.0 0.00 0.00 0.00 85 946.0
20210805120258 64 79 2.0 4.0 0.00 0.00 0.00 85 946.0
20210805120158 64 79 2.0 4.0 0.00 0.00 0.00 85 946.0
20210805120053 64 78 2.0 4.0 0.00 0.00 0.00 84 945.9
20210805115953 64 78 2.0 4.0 0.00 0.00 0.00 84 946.0
20210805115851 64 76 2.0 4.0 0.00 0.00 0.00 85 946.0
20210805115754 64 84 2.0 4.0 0.00 0.00 0.00 85 946.1
20210805115653 64 82 2.0 4.0 0.00 0.00 0.00 85 946.0
20210805115553 64 95 2.0 3.0 0.00 0.00 0.00 85 946.0
20210805115451 64 96 2.0 3.0 0.00 0.00 0.00 84 946.0
20210805115350 64 92 2.0 3.0 0.00 0.00 0.00 84 946.0
20210805115248 64 92 2.0 3.0 0.00 0.00 0.00 84 946.1
20210805115146 64 90 2.0 3.0 0.00 0.00 0.00 85 946.1
20210805115039 64 91 2.0 4.0 0.00 0.00 0.00 84 946.0
20210805114940 64 92 2.0 4.0 0.00 0.00 0.00 84 946.0
20210805114841 64 90 2.0 4.0 0.00 0.00 0.00 85 946.0
20210805114741 64 92 2.0 4.0 0.00 0.00 0.00 84 946.0
20210805114639 64 92 2.0 4.0 0.00 0.00 0.00 84 946.0
20210805114532 64 91 2.0 4.0 0.00 0.00 0.00 84 946.0
20210805114433 64 82 2.0 4.0 0.00 0.00 0.00 84 946.0
20210805114332 64 82 2.0 4.0 0.00 0.00 0.00 85 945.9
20210805114231 64 80 2.0 4.0 0.00 0.00 0.00 84 945.9
20210805114132 64 79 2.0 4.0 0.00 0.00 0.00 85 945.9
20210805114029 64 75 2.0 3.0 0.00 0.00 0.00 85 945.9
20210805113929 64 81 2.0 3.0 0.00 0.00 0.00 85 945.8
20210805113826 64 80 2.0 3.0 0.00 0.00 0.00 85 946.0
20210805113726 64 86 2.0 3.0 0.00 0.00 0.00 85 945.9
20210805113624 64 86 2.0 3.0 0.00 0.00 0.00 85 945.8
20210805113519 64 86 2.0 3.0 0.00 0.00 0.00 85 945.9
20210805113418 63 86 2.0 3.0 0.00 0.00 0.00 85 945.9
20210805113318 63 86 2.0 3.0 0.00 0.00 0.00 85 945.9
20210805113215 63 86 2.0 3.0 0.00 0.00 0.00 86 945.9
20210805113116 63 87 2.0 3.0 0.00 0.00 0.00 86 945.8
20210805113016 63 88 2.0 3.0 0.00 0.00 0.00 86 945.8
20210805112916 63 88 2.0 3.0 0.00 0.00 0.00 86 945.7
20210805112813 63 89 2.0 3.0 0.00 0.00 0.00 86 945.8
20210805112712 63 90 2.0 3.0 0.00 0.00 0.00 86 945.8
20210805112609 63 90 2.0 3.0 0.00 0.00 0.00 86 945.7
20210805112508 63 90 1.0 3.0 0.00 0.00 0.00 86 945.8
20210805112406 62 80 1.0 3.0 0.00 0.00 0.00 86 945.9
20210805112306 62 63 1.0 3.0 0.00 0.00 0.00 86 945.8
20210805112205 62 30 1.0 2.0 0.00 0.00 0.00 86 945.8
20210805112102 62 28 1.0 2.0 0.00 0.00 0.00 86 945.8
20210805111955 62 28 1.0 2.0 0.00 0.00 0.00 86 945.8
20210805111855 62 28 1.0 2.0 0.00 0.00 0.00 86 945.8
20210805111756 62 27 1.0 2.0 0.00 0.00 0.00 86 945.8
20210805111656 62 27 1.0 2.0 0.00 0.00 0.00 86 945.8
20210805111557 62 26 1.0 3.0 0.00 0.00 0.00 86 945.8
20210805111451 62 26 1.0 3.0 0.00 0.00 0.00 86 945.7
20210805111350 62 26 1.0 3.0 0.00 0.00 0.00 86 945.7
20210805111249 62 27 1.0 3.0 0.00 0.00 0.00 86 945.7
20210805111149 62 27 1.0 3.0 0.00 0.00 0.00 86 945.7
20210805111050 62 27 1.0 3.0 0.00 0.00 0.00 86 945.7
20210805110945 62 27 1.0 3.0 0.00 0.00 0.00 86 945.7
20210805110844 62 27 1.0 3.0 0.00 0.00 0.00 86 945.8
20210805110745 62 27 1.0 3.0 0.00 0.00 0.00 86 945.7
20210805110645 62 27 1.0 3.0 0.00 0.00 0.00 86 945.7
20210805110544 62 26 1.0 2.0 0.00 0.00 0.00 87 945.8
20210805110438 62 24 1.0 2.0 0.00 0.00 0.00 87 945.8
20210805110338 62 24 1.0 2.0 0.00 0.00 0.00 87 945.7
20210805110238 62 24 1.0 3.0 0.00 0.00 0.00 87 945.7
20210805110137 62 24 1.0 3.0 0.00 0.00 0.00 87 945.7
20210805110045 62 24 1.0 3.0 0.00 0.00 0.00 87 945.7
20210805105934 62 21 1.0 3.0 0.00 0.00 0.00 87 945.7
20210805105831 62 21 1.0 3.0 0.00 0.00 0.00 87 945.6
20210805105731 62 20 1.0 3.0 0.00 0.00 0.00 87 945.6
20210805105631 62 20 1.0 3.0 0.00 0.00 0.00 87 945.6
20210805105531 62 20 1.0 3.0 0.00 0.00 0.00 87 945.6
20210805105428 62 13 1.0 3.0 0.00 0.00 0.00 86 945.6
20210805105326 62 34 1.0 3.0 0.00 0.00 0.00 86 945.6
20210805105227 62 24 1.0 3.0 0.00 0.00 0.00 86 945.5
20210805105126 62 17 1.0 3.0 0.00 0.00 0.00 86 945.6
20210805105026 62 24 1.0 2.0 0.00 0.00 0.00 86 945.6
20210805104920 63 28 1.0 2.0 0.00 0.00 0.00 86 945.6
20210805104820 63 26 1.0 2.0 0.00 0.00 0.00 86 945.6
20210805104720 63 26 1.0 2.0 0.00 0.00 0.00 86 945.6
20210805104619 63 26 1.0 3.0 0.00 0.00 0.00 86 945.6
20210805104520 63 26 1.0 3.0 0.00 0.00 0.00 86 945.5
20210805104420 63 26 1.0 3.0 0.00 0.00 0.00 85 945.6
20210805104317 63 26 1.0 3.0 0.00 0.00 0.00 85 945.5
20210805104217 63 26 1.0 3.0 0.00 0.00 0.00 85 945.5
20210805104116 63 29 1.0 3.0 0.00 0.00 0.00 85 945.5
20210805104014 63 29 1.0 3.0 0.00 0.00 0.00 85 945.5
20210805103913 63 29 1.0 3.0 0.00 0.00 0.00 85 945.5
20210805103812 63 23 1.0 3.0 0.00 0.00 0.00 85 945.5
20210805103712 63 24 1.0 3.0 0.00 0.00 0.00 85 945.4
20210805103611 63 22 1.0 3.0 0.00 0.00 0.00 85 945.5
20210805103509 63 28 1.0 3.0 0.00 0.00 0.00 85 945.6
20210805103402 63 15 1.0 3.0 0.00 0.00 0.00 85 945.5
20210805103303 63 5 1.0 3.0 0.00 0.00 0.00 85 945.5
20210805103202 63 51 1.0 2.0 0.00 0.00 0.00 84 945.6
20210805103102 64 51 1.0 2.0 0.00 0.00 0.00 84 945.5
20210805103002 64 92 1.0 2.0 0.00 0.00 0.00 84 945.5
20210805102858 64 92 1.0 2.0 0.00 0.00 0.00 84 945.5
20210805102755 64 92 1.0 2.0 0.00 0.00 0.00 84 945.5
20210805102656 64 92 1.0 2.0 0.00 0.00 0.00 84 945.4
20210805102557 64 92 1.0 2.0 0.00 0.00 0.00 84 945.4
20210805102457 64 92 1.0 2.0 0.00 0.00 0.00 84 945.3
20210805102355 64 92 1.0 2.0 0.00 0.00 0.00 84 945.4
20210805102257 64 92 1.0 2.0 0.00 0.00 0.00 84 945.3
20210805102154 64 92 1.0 2.0 0.00 0.00 0.00 84 945.3
20210805102051 64 92 1.0 2.0 0.00 0.00 0.00 84 945.3
20210805101950 64 92 1.0 2.0 0.00 0.00 0.00 84 945.4
20210805101843 64 92 1.0 2.0 0.00 0.00 0.00 84 945.3
20210805101744 64 92 1.0 3.0 0.00 0.00 0.00 84 945.3
20210805101644 64 92 1.0 3.0 0.00 0.00 0.00 84 945.3
20210805101544 63 92 1.0 3.0 0.00 0.00 0.00 84 945.3
20210805101444 63 92 1.0 3.0 0.00 0.00 0.00 84 945.2
20210805101337 64 92 1.0 3.0 0.00 0.00 0.00 84 945.2
20210805101238 64 92 1.0 3.0 0.00 0.00 0.00 84 945.3
20210805101137 63 92 1.0 3.0 0.00 0.00 0.00 84 945.3
20210805101037 63 92 1.0 3.0 0.00 0.00 0.00 84 945.2
20210805100938 63 92 1.0 3.0 0.00 0.00 0.00 85 945.2
20210805100833 63 92 1.0 3.0 0.00 0.00 0.00 85 945.2
20210805100733 63 105 1.0 3.0 0.00 0.00 0.00 85 945.2
20210805100631 63 105 1.0 3.0 0.00 0.00 0.00 85 945.2
20210805100532 63 105 1.0 3.0 0.00 0.00 0.00 85 945.3
20210805100432 63 105 1.0 3.0 0.00 0.00 0.00 85 945.3
20210805100325 63 105 1.0 3.0 0.00 0.00 0.00 85 945.3
20210805100226 63 105 2.0 3.0 0.00 0.00 0.00 85 945.3
20210805100126 63 105 2.0 3.0 0.00 0.00 0.00 85 945.2
20210805100025 63 105 2.0 3.0 0.00 0.00 0.00 85 945.2
20210805095926 63 105 2.0 3.0 0.00 0.00 0.00 85 945.2
20210805095827 63 106 2.0 3.0 0.00 0.00 0.00 85 945.2
20210805095724 63 95 2.0 3.0 0.00 0.00 0.00 85 945.2
20210805095624 63 95 2.0 3.0 0.00 0.00 0.00 85 945.2
20210805095523 63 88 2.0 3.0 0.00 0.00 0.00 85 945.1
20210805095420 63 90 1.0 3.0 0.00 0.00 0.00 85 945.1
20210805095314 63 103 1.0 3.0 0.00 0.00 0.00 85 945.1
20210805095215 63 105 1.0 3.0 0.00 0.00 0.00 85 945.1
20210805095113 63 74 1.0 3.0 0.00 0.00 0.00 85 945.1
20210805095015 63 71 1.0 3.0 0.00 0.00 0.00 85 945.1
20210805094915 63 70 1.0 3.0 0.00 0.00 0.00 85 945.1
20210805094807 63 69 0.0 3.0 0.00 0.00 0.00 85 945.1
20210805094707 63 73 0.0 2.0 0.00 0.00 0.00 85 945.1
20210805094608 63 73 0.0 2.0 0.00 0.00 0.00 86 945.1
20210805094507 63 73 0.0 2.0 0.00 0.00 0.00 86 945.1
20210805094408 63 73 0.0 2.0 0.00 0.00 0.00 86 945.1
20210805094307 63 73 1.0 2.0 0.00 0.00 0.00 86 945.1
20210805094205 63 73 1.0 3.0 0.00 0.00 0.00 86 945.1
20210805094107 63 73 1.0 3.0 0.00 0.00 0.00 86 945.1
20210805094004 63 73 1.0 3.0 0.00 0.00 0.00 86 945.1
20210805093903 63 73 1.0 4.0 0.00 0.00 0.00 86 945.1
20210805093805 63 73 2.0 5.0 0.00 0.00 0.00 86 945.0
20210805093701 63 73 2.0 5.0 0.00 0.00 0.00 86 945.1
20210805093600 63 73 2.0 5.0 0.00 0.00 0.00 86 945.1
20210805093457 63 73 2.0 5.0 0.00 0.00 0.00 86 945.1
20210805093355 63 77 2.0 5.0 0.00 0.00 0.00 86 945.1
20210805093250 63 78 2.0 5.0 0.00 0.00 0.00 86 945.0
20210805093149 63 79 2.0 5.0 0.00 0.00 0.00 86 945.0
20210805093050 63 79 2.0 5.0 0.00 0.00 0.00 86 945.1
20210805092950 63 74 2.0 5.0 0.00 0.00 0.00 86 945.1
20210805092850 63 74 2.0 5.0 0.00 0.00 0.00 86 945.0
20210805092748 63 88 2.0 4.0 0.00 0.00 0.00 85 945.0
20210805092647 63 75 2.0 4.0 0.00 0.00 0.00 86 945.0
20210805092548 63 74 2.0 3.0 0.00 0.00 0.00 86 945.0
20210805092447 63 65 1.0 3.0 0.00 0.00 0.00 86 945.0
20210805092345 63 50 1.0 3.0 0.00 0.00 0.00 86 945.1
20210805092239 63 50 1.0 3.0 0.00 0.00 0.00 86 945.0
20210805092137 63 49 1.0 3.0 0.00 0.00 0.00 85 945.0
20210805092038 63 42 1.0 3.0 0.00 0.00 0.00 85 945.0
20210805091939 63 39 1.0 2.0 0.00 0.00 0.00 85 945.0
20210805091838 63 39 1.0 2.0 0.00 0.00 0.00 85 945.1
20210805091731 63 39 1.0 2.0 0.00 0.00 0.00 85 945.1
20210805091632 63 39 1.0 2.0 0.00 0.00 0.00 85 945.0
20210805091533 63 39 1.0 2.0 0.00 0.00 0.00 85 945.1
20210805091432 63 39 1.0 2.0 0.00 0.00 0.00 85 945.1
20210805091332 63 39 1.0 2.0 0.00 0.00 0.00 85 945.1
20210805091230 63 39 1.0 2.0 0.00 0.00 0.00 85 945.1
20210805091130 63 39 1.0 2.0 0.00 0.00 0.00 85 945.1
20210805091031 63 39 1.0 3.0 0.00 0.00 0.00 85 945.1
20210805090927 63 39 1.0 3.0 0.00 0.00 0.00 85 945.1
20210805090827 63 39 1.0 3.0 0.00 0.00 0.00 85 945.0
20210805090725 63 39 1.0 3.0 0.00 0.00 0.00 85 945.1
20210805090623 63 39 1.0 3.0 0.00 0.00 0.00 85 945.1
20210805090525 63 39 1.0 3.0 0.00 0.00 0.00 85 945.2
20210805090422 63 24 1.0 3.0 0.00 0.00 0.00 85 945.1
20210805090319 63 24 1.0 3.0 0.00 0.00 0.00 85 945.1
20210805090213 63 24 1.0 3.0 0.00 0.00 0.00 85 945.1
20210805090114 63 22 1.0 2.0 0.00 0.00 0.00 85 945.2
20210805090013 63 32 1.0 2.0 0.00 0.00 0.00 86 945.1
20210805085914 63 32 1.0 2.0 0.00 0.00 0.00 86 945.1
20210805085814 63 32 1.0 2.0 0.00 0.00 0.00 86 945.1
20210805085708 63 32 1.0 2.0 0.00 0.00 0.00 86 945.1
20210805085607 63 32 1.0 2.0 0.00 0.00 0.00 86 945.1
20210805085507 63 32 1.0 2.0 0.00 0.00 0.00 86 945.1
20210805085408 63 32 1.0 2.0 0.00 0.00 0.00 85 945.0
20210805085308 63 43 1.0 2.0 0.00 0.00 0.00 85 945.1
20210805085206 63 43 1.0 2.0 0.00 0.00 0.00 85 945.1
20210805085107 63 43 1.0 2.0 0.00 0.00 0.00 85 945.1
20210805085006 63 52 1.0 2.0 0.00 0.00 0.00 85 945.0
20210805084904 63 53 1.0 2.0 0.00 0.00 0.00 85 945.0
20210805084803 63 53 1.0 2.0 0.00 0.00 0.00 85 945.0
20210805084702 63 53 1.0 2.0 0.00 0.00 0.00 86 945.0
20210805084555 63 53 1.0 2.0 0.00 0.00 0.00 86 945.0
20210805084458 63 53 1.0 3.0 0.00 0.00 0.00 86 945.1
20210805084356 63 57 1.0 3.0 0.00 0.00 0.00 86 945.0
20210805084256 63 57 1.0 3.0 0.00 0.00 0.00 86 945.0
20210805084151 63 57 1.0 3.0 0.00 0.00 0.00 86 945.0
20210805084050 63 58 1.0 3.0 0.00 0.00 0.00 86 945.0
20210805083949 64 58 1.0 3.0 0.00 0.00 0.00 86 944.9
20210805083849 64 58 1.0 3.0 0.00 0.00 0.00 86 944.9
20210805083750 64 58 1.0 3.0 0.00 0.00 0.00 86 945.0
20210805083649 63 58 1.0 3.0 0.00 0.00 0.00 86 944.9
20210805083548 63 58 1.0 3.0 0.00 0.00 0.00 86 944.9
20210805083447 63 36 1.0 3.0 0.00 0.00 0.00 86 944.9
20210805083347 63 36 1.0 3.0 0.00 0.00 0.00 86 944.9
20210805083243 64 36 1.0 3.0 0.00 0.00 0.00 86 944.9
20210805083138 64 36 1.0 3.0 0.00 0.00 0.00 86 944.9
20210805083043 64 36 1.0 3.0 0.00 0.00 0.00 86 944.8
20210805082939 64 36 1.0 3.0 0.00 0.00 0.00 86 944.8
20210805082837 64 36 1.0 3.0 0.00 0.00 0.00 86 944.8
20210805082738 64 34 1.0 3.0 0.00 0.00 0.00 86 944.9
20210805082632 64 44 1.0 4.0 0.00 0.00 0.00 86 944.9
20210805082530 64 44 1.0 4.0 0.00 0.00 0.00 86 944.9
20210805082432 64 44 1.0 4.0 0.00 0.00 0.00 86 944.8
20210805082331 64 46 1.0 4.0 0.00 0.00 0.00 86 944.9
20210805082233 64 34 1.0 4.0 0.00 0.00 0.00 86 944.8
20210805082132 64 32 1.0 4.0 0.00 0.00 0.00 86 944.9
20210805082031 64 61 1.0 4.0 0.00 0.00 0.00 86 944.8
20210805081929 64 67 1.0 4.0 0.00 0.00 0.00 86 944.8
20210805081828 64 67 1.0 4.0 0.00 0.00 0.00 86 944.9
20210805081726 64 65 1.0 4.0 0.00 0.00 0.00 86 944.8
20210805081619 64 66 1.0 4.0 0.00 0.00 0.00 86 944.7
20210805081521 64 66 1.0 4.0 0.00 0.00 0.00 86 944.7
20210805081419 64 68 1.0 4.0 0.00 0.00 0.00 86 944.8
20210805081320 64 68 1.0 4.0 0.00 0.00 0.00 86 944.8
20210805081220 64 68 1.0 4.0 0.00 0.00 0.00 86 944.7
20210805081118 64 68 1.0 4.0 0.00 0.00 0.00 86 944.8
20210805081018 64 67 1.0 4.0 0.00 0.00 0.00 86 944.8
20210805080915 64 74 1.0 3.0 0.00 0.00 0.00 86 944.8
20210805080815 64 74 1.0 3.0 0.00 0.00 0.00 86 944.7
20210805080714 64 74 1.0 3.0 0.00 0.00 0.00 86 944.7
20210805080613 64 74 1.0 3.0 0.00 0.00 0.00 86 944.8
20210805080512 64 74 1.0 2.0 0.00 0.00 0.00 86 944.7
20210805080413 64 74 1.0 2.0 0.00 0.00 0.00 86 944.7
20210805080345 64 74 1.0 2.0 0.00 0.00 0.00 85 944.7
20210805080208 64 75 0.0 2.0 0.00 0.00 0.00 86 944.7
20210805080121 64 75 0.0 2.0 0.00 0.00 0.00 85 944.7
20210805080006 64 75 0.0 2.0 0.00 0.00 0.00 85 944.7
20210805075901 64 75 0.0 2.0 0.00 0.00 0.00 85 944.6
20210805075800 64 75 0.0 2.0 0.00 0.00 0.00 85 944.7
20210805075707 64 75 0.0 2.0 0.00 0.00 0.00 85 944.7
20210805075558 64 75 0.0 2.0 0.00 0.00 0.00 85 944.6
20210805075458 64 75 0.0 2.0 0.00 0.00 0.00 85 944.7
20210805075359 64 75 0.0 2.0 0.00 0.00 0.00 85 944.6
20210805075258 64 75 0.0 2.0 0.00 0.00 0.00 84 944.7
20210805075201 64 75 0.0 2.0 0.00 0.00 0.00 84 944.6
20210805075055 64 75 0.0 2.0 0.00 0.00 0.00 84 944.6
20210805074954 64 75 0.0 3.0 0.00 0.00 0.00 84 944.6
20210805074853 64 75 1.0 3.0 0.00 0.00 0.00 84 944.6
20210805074753 64 78 1.0 3.0 0.00 0.00 0.00 84 944.6
20210805074651 64 78 1.0 3.0 0.00 0.00 0.00 84 944.7
20210805074543 64 78 1.0 3.0 0.00 0.00 0.00 83 944.6
20210805074445 64 78 1.0 3.0 0.00 0.00 0.00 83 944.6
20210805074344 65 78 2.0 3.0 0.00 0.00 0.00 83 944.7
20210805074244 65 78 2.0 3.0 0.00 0.00 0.00 83 944.6
20210805074144 65 78 2.0 3.0 0.00 0.00 0.00 83 944.6
20210805074040 65 78 2.0 3.0 0.00 0.00 0.00 83 944.6
20210805073938 65 78 2.0 3.0 0.00 0.00 0.00 83 944.6
20210805073837 65 78 2.0 3.0 0.00 0.00 0.00 83 944.6
20210805073736 65 79 2.0 3.0 0.00 0.00 0.00 82 944.6
20210805073638 65 115 2.0 3.0 0.00 0.00 0.00 82 944.6
20210805073534 65 115 2.0 3.0 0.00 0.00 0.00 82 944.6
20210805073433 65 115 2.0 3.0 0.00 0.00 0.00 82 944.6
20210805073332 65 115 2.0 3.0 0.00 0.00 0.00 82 944.7
20210805073231 65 115 2.0 3.0 0.00 0.00 0.00 82 944.6
20210805073135 65 115 2.0 3.0 0.00 0.00 0.00 82 944.6
20210805073032 65 115 2.0 2.0 0.00 0.00 0.00 82 944.6
20210805072926 65 115 2.0 2.0 0.00 0.00 0.00 82 944.6
20210805072825 65 115 2.0 2.0 0.00 0.00 0.00 82 944.6
20210805072727 65 115 2.0 2.0 0.00 0.00 0.00 82 944.7
20210805072627 65 115 1.0 2.0 0.00 0.00 0.00 82 944.6
20210805072523 65 115 1.0 2.0 0.00 0.00 0.00 82 944.6
20210805072419 65 115 2.0 3.0 0.00 0.00 0.00 82 944.6
20210805072320 65 115 2.0 3.0 0.00 0.00 0.00 82 944.5
20210805072250 65 115 2.0 3.0 0.00 0.00 0.00 82 944.7
20210805072120 65 115 2.0 3.0 0.00 0.00 0.00 82 944.6
20210805072017 65 115 2.0 3.0 0.00 0.00 0.00 82 944.6
20210805071944 65 115 2.0 3.0 0.00 0.00 0.00 82 944.6
20210805071815 65 115 2.0 3.0 0.00 0.00 0.00 82 944.7
20210805071714 65 115 2.0 3.0 0.00 0.00 0.00 82 944.6
20210805071614 65 115 2.0 3.0 0.00 0.00 0.00 82 944.6
20210805071506 65 115 2.0 3.0 0.00 0.00 0.00 82 944.7
20210805071408 65 116 2.0 3.0 0.00 0.00 0.00 82 944.6
20210805071307 65 116 2.0 3.0 0.00 0.00 0.00 82 944.5
20210805071206 65 116 1.0 3.0 0.00 0.00 0.00 82 944.6
20210805071108 65 116 1.0 3.0 0.00 0.00 0.00 82 944.6
20210805071002 65 116 1.0 3.0 0.00 0.00 0.00 82 944.6
20210805070902 65 115 1.0 3.0 0.00 0.00 0.00 82 944.5
20210805070802 65 116 1.0 3.0 0.00 0.00 0.00 82 944.6
20210805070702 65 116 1.0 3.0 0.00 0.00 0.00 82 944.6
20210805070602 65 116 1.0 3.0 0.00 0.00 0.00 82 944.6
20210805070459 65 116 1.0 3.0 0.00 0.00 0.00 82 944.5
20210805070403 65 116 1.0 3.0 0.00 0.00 0.00 82 944.6
20210805070259 65 116 2.0 3.0 0.00 0.00 0.00 82 944.6
20210805070157 65 116 2.0 3.0 0.00 0.00 0.00 82 944.6
20210805070055 65 115 2.0 3.0 0.00 0.00 0.00 82 944.6
20210805065948 65 115 2.0 3.0 0.00 0.00 0.00 82 944.5
20210805065849 65 115 2.0 3.0 0.00 0.00 0.00 82 944.5
20210805065750 65 115 2.0 4.0 0.00 0.00 0.00 82 944.6
20210805065648 65 115 2.0 4.0 0.00 0.00 0.00 82 944.5
20210805065551 65 115 2.0 4.0 0.00 0.00 0.00 82 944.5
20210805065450 65 115 3.0 4.0 0.00 0.00 0.00 82 944.5
20210805065347 65 115 3.0 4.0 0.00 0.00 0.00 82 944.4
20210805065247 65 115 3.0 6.0 0.00 0.00 0.00 82 944.5
20210805065146 65 117 3.0 6.0 0.00 0.00 0.00 82 944.5
20210805065044 65 117 3.0 6.0 0.00 0.00 0.00 82 944.5
20210805064940 65 117 3.0 6.0 0.00 0.00 0.00 82 944.5
20210805064840 65 117 3.0 6.0 0.00 0.00 0.00 82 944.5
20210805064737 65 115 3.0 6.0 0.00 0.00 0.00 82 944.4
20210805064637 65 119 3.0 6.0 0.00 0.00 0.00 82 944.4
20210805064550 65 120 3.0 6.0 0.00 0.00 0.00 82 944.4
20210805064431 65 136 3.0 7.0 0.00 0.00 0.00 81 944.5
20210805064331 65 126 3.0 7.0 0.00 0.00 0.00 81 944.5
20210805064234 65 117 3.0 7.0 0.00 0.00 0.00 81 944.5
20210805064132 65 112 3.0 7.0 0.00 0.00 0.00 81 944.5
20210805064032 65 96 3.0 7.0 0.00 0.00 0.00 81 944.5
20210805063929 65 125 3.0 7.0 0.00 0.00 0.00 81 944.5
20210805063826 65 130 4.0 7.0 0.00 0.00 0.00 81 944.5
20210805063725 65 133 4.0 7.0 0.00 0.00 0.00 81 944.5
20210805063625 65 113 3.0 7.0 0.00 0.00 0.00 81 944.6
20210805063525 65 132 3.0 7.0 0.00 0.00 0.00 81 944.5
20210805063418 65 128 3.0 5.0 0.00 0.00 0.00 81 944.5
20210805063319 65 126 3.0 5.0 0.00 0.00 0.00 81 944.5
20210805063221 65 113 3.0 5.0 0.00 0.00 0.00 81 944.5
20210805063120 65 119 3.0 5.0 0.00 0.00 0.00 81 944.5
20210805063043 65 129 4.0 5.0 0.00 0.00 0.00 81 944.5
20210805062918 65 124 4.0 5.0 0.00 0.00 0.00 81 944.5
20210805062817 65 121 3.0 5.0 0.00 0.00 0.00 81 944.5
20210805062717 65 111 4.0 5.0 0.00 0.00 0.00 81 944.5
20210805062628 65 109 4.0 6.0 0.00 0.00 0.00 81 944.5
20210805062527 65 110 4.0 6.0 0.00 0.00 0.00 81 944.5
20210805062419 65 125 4.0 6.0 0.00 0.00 0.00 81 944.6
20210805062316 65 125 4.0 6.0 0.00 0.00 0.00 81 944.6
20210805062221 65 120 4.0 6.0 0.00 0.00 0.00 81 944.6
20210805062124 65 122 4.0 6.0 0.00 0.00 0.00 81 944.5
20210805062017 65 121 4.0 6.0 0.00 0.00 0.00 81 944.6
20210805061918 65 128 4.0 6.0 0.00 0.00 0.00 81 944.6
20210805061817 65 120 4.0 6.0 0.00 0.00 0.00 81 944.5
20210805061740 65 131 4.0 6.0 0.00 0.00 0.00 81 944.6
20210805061618 65 126 4.0 6.0 0.00 0.00 0.00 81 944.6
20210805061517 65 126 4.0 6.0 0.00 0.00 0.00 81 944.6
20210805061417 65 103 3.0 6.0 0.00 0.00 0.00 81 944.6
20210805061317 65 118 3.0 6.0 0.00 0.00 0.00 81 944.6
20210805061214 65 116 3.0 6.0 0.00 0.00 0.00 81 944.6
20210805061111 65 115 4.0 6.0 0.00 0.00 0.00 81 944.6
20210805061020 65 123 4.0 6.0 0.00 0.00 0.00 81 944.6
20210805060910 65 107 4.0 6.0 0.00 0.00 0.00 81 944.6
20210805060808 65 111 4.0 6.0 0.00 0.00 0.00 81 944.6
20210805060704 65 129 4.0 6.0 0.00 0.00 0.00 81 944.5
20210805060604 65 131 4.0 7.0 0.00 0.00 0.00 81 944.6
20210805060503 65 120 4.0 7.0 0.00 0.00 0.00 81 944.5
20210805060401 65 128 4.0 8.0 0.00 0.00 0.00 81 944.6
20210805060301 65 130 4.0 8.0 0.00 0.00 0.00 81 944.5
20210805060216 65 123 4.0 8.0 0.00 0.00 0.00 81 944.6
20210805060109 65 117 4.0 8.0 0.00 0.00 0.00 81 944.6
20210805055956 65 111 4.0 8.0 0.00 0.00 0.00 81 944.6
20210805055855 65 125 4.0 8.0 0.00 0.00 0.00 81 944.6
20210805055756 65 118 4.0 8.0 0.00 0.00 0.00 81 944.6
20210805055701 65 113 4.0 8.0 0.00 0.00 0.00 81 944.6
20210805055601 65 132 4.0 8.0 0.00 0.00 0.00 81 944.6
20210805055456 65 112 4.0 8.0 0.00 0.00 0.00 81 944.6
20210805055357 65 131 4.0 7.0 0.00 0.00 0.00 81 944.6
20210805055256 65 128 4.0 7.0 0.00 0.00 0.00 81 944.6
20210805055203 65 118 4.0 7.0 0.00 0.00 0.00 81 944.6
20210805055100 65 108 4.0 7.0 0.00 0.00 0.00 81 944.7
20210805054953 65 112 4.0 7.0 0.00 0.00 0.00 81 944.7
20210805054851 65 122 4.0 7.0 0.00 0.00 0.00 81 944.7
20210805054751 65 114 4.0 7.0 0.00 0.00 0.00 81 944.6
20210805054650 65 122 4.0 7.0 0.00 0.00 0.00 81 944.7
20210805054550 65 105 4.0 7.0 0.00 0.00 0.00 81 944.6
20210805054449 65 121 4.0 7.0 0.00 0.00 0.00 81 944.7
20210805054349 65 102 4.0 7.0 0.00 0.00 0.00 81 944.7
20210805054249 66 116 4.0 7.0 0.00 0.00 0.00 81 944.7
20210805054152 66 109 4.0 7.0 0.00 0.00 0.00 80 944.7
20210805054057 66 113 4.0 7.0 0.00 0.00 0.00 80 944.7
20210805053944 66 113 4.0 7.0 0.00 0.00 0.00 80 944.7
20210805053842 66 110 3.0 7.0 0.00 0.00 0.00 80 944.7
20210805053808 66 119 3.0 6.0 0.00 0.00 0.00 80 944.7
20210805053721 66 120 3.0 6.0 0.00 0.00 0.00 80 944.7
20210805053544 66 113 3.0 6.0 0.00 0.00 0.00 80 944.8
20210805053437 66 119 3.0 6.0 0.00 0.00 0.00 80 944.8
20210805053337 66 118 3.0 6.0 0.00 0.00 0.00 80 944.7
20210805053237 66 122 3.0 6.0 0.00 0.00 0.00 80 944.8
20210805053139 66 111 3.0 6.0 0.00 0.00 0.00 81 944.8
20210805053038 66 124 3.0 6.0 0.00 0.00 0.00 81 944.8
20210805052936 66 122 3.0 6.0 0.00 0.00 0.00 81 944.8
20210805052836 65 111 3.0 6.0 0.00 0.00 0.00 81 944.7
20210805052735 65 116 3.0 6.0 0.00 0.00 0.00 81 944.8
20210805052635 65 119 3.0 6.0 0.00 0.00 0.00 81 944.8
20210805052545 65 115 3.0 6.0 0.00 0.00 0.00 81 944.8
20210805052436 66 115 3.0 6.0 0.00 0.00 0.00 81 944.7
20210805052335 66 119 3.0 6.0 0.00 0.00 0.00 81 944.8
20210805052235 66 114 3.0 6.0 0.00 0.00 0.00 81 944.8
20210805052136 66 109 3.0 6.0 0.00 0.00 0.00 81 944.8
20210805052041 66 117 3.0 6.0 0.00 0.00 0.00 81 944.8
20210805051936 66 117 3.0 6.0 0.00 0.00 0.00 81 944.7
20210805051836 66 115 3.0 6.0 0.00 0.00 0.00 81 944.8
20210805051729 66 119 3.0 6.0 0.00 0.00 0.00 81 944.8
20210805051631 66 120 3.0 6.0 0.00 0.00 0.00 81 944.8
20210805051534 66 117 3.0 6.0 0.00 0.00 0.00 81 944.8
20210805051430 66 116 3.0 6.0 0.00 0.00 0.00 81 944.8
20210805051328 66 123 3.0 6.0 0.00 0.00 0.00 81 944.8
20210805051229 66 105 3.0 6.0 0.00 0.00 0.00 81 944.8
20210805051129 66 126 3.0 6.0 0.00 0.00 0.00 81 944.8
20210805051029 66 125 3.0 6.0 0.00 0.00 0.00 81 944.9
20210805050929 66 130 3.0 6.0 0.00 0.00 0.00 81 944.8
20210805050830 66 116 3.0 6.0 0.00 0.00 0.00 81 944.8
20210805050729 66 113 3.0 6.0 0.00 0.00 0.00 81 944.8
20210805050630 66 121 3.0 6.0 0.00 0.00 0.00 81 944.9
20210805050525 66 109 3.0 6.0 0.00 0.00 0.00 81 944.8
20210805050425 66 94 3.0 6.0 0.00 0.00 0.00 81 944.8
20210805050325 66 113 3.0 6.0 0.00 0.00 0.00 81 944.9
20210805050225 66 114 3.0 6.0 0.00 0.00 0.00 81 944.8
20210805050125 66 117 3.0 6.0 0.00 0.00 0.00 80 944.8
20210805050026 66 107 3.0 6.0 0.00 0.00 0.00 80 944.8
20210805045926 66 105 3.0 6.0 0.00 0.00 0.00 80 944.8
20210805045825 66 108 3.0 6.0 0.00 0.00 0.00 80 944.9
20210805045726 66 109 3.0 6.0 0.00 0.00 0.00 80 944.8
20210805045625 66 102 3.0 4.0 0.00 0.00 0.00 80 944.8
20210805045524 66 101 3.0 4.0 0.00 0.00 0.00 80 944.8
20210805045424 66 99 3.0 4.0 0.00 0.00 0.00 80 944.8
20210805045324 66 98 2.0 4.0 0.00 0.00 0.00 80 944.8
20210805045225 66 107 2.0 4.0 0.00 0.00 0.00 80 944.8
20210805045126 66 109 2.0 4.0 0.00 0.00 0.00 80 944.9
20210805045024 66 108 2.0 4.0 0.00 0.00 0.00 80 944.9
20210805044925 66 96 2.0 4.0 0.00 0.00 0.00 80 944.9
20210805044825 66 96 2.0 4.0 0.00 0.00 0.00 80 944.8
20210805044726 66 96 2.0 4.0 0.00 0.00 0.00 80 944.8
20210805044622 66 87 2.0 4.0 0.00 0.00 0.00 80 944.8
20210805044529 66 87 2.0 4.0 0.00 0.00 0.00 80 944.8
20210805044421 66 84 2.0 4.0 0.00 0.00 0.00 80 944.9
20210805044321 66 109 2.0 3.0 0.00 0.00 0.00 80 944.9
20210805044223 66 109 2.0 3.0 0.00 0.00 0.00 80 944.8
20210805044121 66 109 2.0 3.0 0.00 0.00 0.00 80 944.9
20210805044022 66 109 2.0 3.0 0.00 0.00 0.00 80 944.9
20210805043921 66 111 2.0 3.0 0.00 0.00 0.00 80 944.9
20210805043823 66 111 2.0 4.0 0.00 0.00 0.00 80 944.9
20210805043722 66 110 2.0 4.0 0.00 0.00 0.00 80 944.9
20210805043621 66 110 2.0 4.0 0.00 0.00 0.00 80 944.9
20210805043522 66 111 2.0 4.0 0.00 0.00 0.00 80 944.9
20210805043423 66 110 3.0 4.0 0.00 0.00 0.00 79 944.9
20210805043321 66 110 3.0 4.0 0.00 0.00 0.00 79 944.9
20210805043223 67 110 3.0 4.0 0.00 0.00 0.00 79 944.8
20210805043138 67 110 3.0 4.0 0.00 0.00 0.00 79 944.9
20210805043034 67 109 3.0 4.0 0.00 0.00 0.00 79 944.9
20210805042921 67 109 3.0 4.0 0.00 0.00 0.00 79 944.9
20210805042822 67 108 3.0 4.0 0.00 0.00 0.00 79 944.8
20210805042719 67 105 3.0 4.0 0.00 0.00 0.00 79 944.8
20210805042617 67 117 3.0 4.0 0.00 0.00 0.00 79 944.8
20210805042517 67 117 3.0 4.0 0.00 0.00 0.00 79 944.8
20210805042417 67 117 3.0 4.0 0.00 0.00 0.00 79 945.0
20210805042319 67 117 3.0 4.0 0.00 0.00 0.00 79 944.9
20210805042216 67 117 3.0 4.0 0.00 0.00 0.00 79 944.9
20210805042117 67 117 3.0 4.0 0.00 0.00 0.00 79 944.8
20210805042017 67 117 3.0 4.0 0.00 0.00 0.00 79 944.8
20210805041918 67 115 3.0 6.0 0.00 0.00 0.00 79 944.9
20210805041817 67 117 3.0 6.0 0.00 0.00 0.00 79 944.7
20210805041717 67 117 3.0 6.0 0.00 0.00 0.00 79 944.8
20210805041617 67 117 3.0 6.0 0.00 0.00 0.00 79 944.8
20210805041521 67 120 3.0 6.0 0.00 0.00 0.00 79 944.8
20210805041417 67 118 3.0 6.0 0.00 0.00 0.00 79 944.7
20210805041317 67 118 3.0 6.0 0.00 0.00 0.00 79 944.7
20210805041218 67 117 3.0 6.0 0.00 0.00 0.00 79 944.7
20210805041118 67 116 3.0 6.0 0.00 0.00 0.00 79 944.6
20210805041017 67 129 3.0 6.0 0.00 0.00 0.00 79 944.8
20210805040918 67 117 3.0 6.0 0.00 0.00 0.00 79 944.7
20210805040814 67 107 3.0 6.0 0.00 0.00 0.00 79 944.7
20210805040712 67 107 3.0 6.0 0.00 0.00 0.00 79 944.7
20210805040614 67 105 3.0 7.0 0.00 0.00 0.00 79 944.8
20210805040513 67 123 3.0 7.0 0.00 0.00 0.00 79 944.7
20210805040412 67 132 3.0 7.0 0.00 0.00 0.00 79 944.7
20210805040313 67 117 3.0 7.0 0.00 0.00 0.00 79 944.7
20210805040214 67 128 3.0 7.0 0.00 0.00 0.00 79 944.6
20210805040142 67 126 3.0 7.0 0.00 0.00 0.00 79 944.6
20210805040012 67 118 4.0 7.0 0.00 0.00 0.00 79 944.7
20210805035914 67 117 4.0 7.0 0.00 0.00 0.00 78 944.6
20210805035813 67 123 4.0 7.0 0.00 0.00 0.00 78 944.7
20210805035716 67 112 4.0 7.0 0.00 0.00 0.00 78 944.7
20210805035608 67 122 4.0 8.0 0.00 0.00 0.00 78 944.7
20210805035517 67 121 4.0 8.0 0.00 0.00 0.00 78 944.6
20210805035408 67 130 4.0 8.0 0.00 0.00 0.00 78 944.7
20210805035308 67 117 4.0 8.0 0.00 0.00 0.00 78 944.7
20210805035208 67 117 4.0 8.0 0.00 0.00 0.00 78 944.6
20210805035105 67 128 4.0 8.0 0.00 0.00 0.00 78 944.6
20210805035007 67 110 5.0 8.0 0.00 0.00 0.00 78 944.6
20210805034907 67 117 5.0 8.0 0.00 0.00 0.00 78 944.6
20210805034805 67 128 5.0 8.0 0.00 0.00 0.00 78 944.6
20210805034703 67 124 5.0 8.0 0.00 0.00 0.00 78 944.6
20210805034555 67 113 5.0 8.0 0.00 0.00 0.00 78 944.6
20210805034456 67 131 5.0 8.0 0.00 0.00 0.00 77 944.6
20210805034356 67 113 5.0 8.0 0.00 0.00 0.00 77 944.6
20210805034256 67 134 5.0 8.0 0.00 0.00 0.00 77 944.6
20210805034202 67 101 5.0 8.0 0.00 0.00 0.00 77 944.6
20210805034050 67 126 5.0 8.0 0.00 0.00 0.00 77 944.5
20210805033950 67 122 5.0 8.0 0.00 0.00 0.00 77 944.6
20210805033847 67 107 5.0 8.0 0.00 0.00 0.00 77 944.6
20210805033748 67 103 5.0 8.0 0.00 0.00 0.00 77 944.6
20210805033715 67 103 5.0 8.0 0.00 0.00 0.00 77 944.6
20210805033544 67 122 5.0 8.0 0.00 0.00 0.00 77 944.6
20210805033442 67 101 5.0 8.0 0.00 0.00 0.00 77 944.6
20210805033342 67 124 4.0 8.0 0.00 0.00 0.00 77 944.5
20210805033310 67 130 4.0 8.0 0.00 0.00 0.00 77 944.6
20210805033142 67 118 5.0 9.0 0.00 0.00 0.00 77 944.6
20210805033035 67 120 5.0 9.0 0.00 0.00 0.00 77 944.5
20210805032935 67 129 5.0 9.0 0.00 0.00 0.00 77 944.6
20210805032837 67 132 5.0 9.0 0.00 0.00 0.00 77 944.5
20210805032736 68 126 5.0 9.0 0.00 0.00 0.00 77 944.5
20210805032636 68 128 5.0 9.0 0.00 0.00 0.00 77 944.5
20210805032533 68 116 5.0 9.0 0.00 0.00 0.00 77 944.5
20210805032433 68 112 6.0 9.0 0.00 0.00 0.00 77 944.4
20210805032334 68 127 6.0 9.0 0.00 0.00 0.00 77 944.5
20210805032233 67 135 6.0 9.0 0.00 0.00 0.00 77 944.5
20210805032130 67 126 6.0 8.0 0.00 0.00 0.00 77 944.4
20210805032024 68 124 6.0 8.0 0.00 0.00 0.00 77 944.4
20210805031924 68 109 5.0 8.0 0.00 0.00 0.00 77 944.4
20210805031824 68 111 5.0 8.0 0.00 0.00 0.00 77 944.4
20210805031724 68 123 6.0 8.0 0.00 0.00 0.00 77 944.3
20210805031624 68 122 6.0 9.0 0.00 0.00 0.00 77 944.4
20210805031518 68 109 5.0 9.0 0.00 0.00 0.00 77 944.4
20210805031419 68 127 5.0 9.0 0.00 0.00 0.00 76 944.4
20210805031319 68 107 5.0 9.0 0.00 0.00 0.00 76 944.4
20210805031221 68 115 5.0 9.0 0.00 0.00 0.00 76 944.3
20210805031117 68 113 5.0 9.0 0.00 0.00 0.00 76 944.4
20210805031017 68 117 5.0 9.0 0.00 0.00 0.00 76 944.4
20210805030913 68 127 5.0 9.0 0.00 0.00 0.00 76 944.4
20210805030813 68 122 5.0 9.0 0.00 0.00 0.00 76 944.4
20210805030712 68 119 4.0 9.0 0.00 0.00 0.00 76 944.4
20210805030624 68 118 4.0 7.0 0.00 0.00 0.00 76 944.5
20210805030528 68 114 4.0 7.0 0.00 0.00 0.00 76 944.4
20210805030405 68 103 4.0 7.0 0.00 0.00 0.00 76 944.4
20210805030306 68 122 4.0 7.0 0.00 0.00 0.00 76 944.4
20210805030230 68 111 4.0 7.0 0.00 0.00 0.00 76 944.4
20210805030120 68 120 4.0 7.0 0.00 0.00 0.00 76 944.4
20210805030000 68 121 4.0 7.0 0.00 0.00 0.00 76 944.4
20210805025859 68 128 4.0 7.0 0.00 0.00 0.00 76 944.4
20210805025759 68 113 4.0 7.0 0.00 0.00 0.00 76 944.3
20210805025700 68 117 4.0 8.0 0.00 0.00 0.00 76 944.3
20210805025600 68 136 4.0 8.0 0.00 0.00 0.00 75 944.4
20210805025454 68 106 4.0 8.0 0.00 0.00 0.00 75 944.2
20210805025352 68 126 5.0 8.0 0.00 0.00 0.00 75 944.3
20210805025254 68 102 5.0 8.0 0.00 0.00 0.00 75 944.3
20210805025202 68 116 5.0 8.0 0.00 0.00 0.00 75 944.3
20210805025054 68 125 5.0 8.0 0.00 0.00 0.00 75 944.3
20210805024949 68 126 5.0 8.0 0.00 0.00 0.00 75 944.3
20210805024849 68 120 5.0 8.0 0.00 0.00 0.00 75 944.4
20210805024749 68 140 5.0 8.0 0.00 0.00 0.00 75 944.3
20210805024650 68 123 5.0 8.0 0.00 0.00 0.00 75 944.3
20210805024548 68 117 5.0 8.0 0.00 0.00 0.00 75 944.4
20210805024442 68 111 5.0 8.0 0.00 0.00 0.00 75 944.4
20210805024344 68 108 5.0 8.0 0.00 0.00 0.00 75 944.3
20210805024244 68 119 5.0 7.0 0.00 0.00 0.00 75 944.4
20210805024140 68 104 5.0 7.0 0.00 0.00 0.00 75 944.4
20210805024042 68 141 5.0 7.0 0.00 0.00 0.00 75 944.4
20210805023941 68 132 5.0 7.0 0.00 0.00 0.00 75 944.4
20210805023841 68 128 5.0 7.0 0.00 0.00 0.00 74 944.4
20210805023741 68 116 4.0 7.0 0.00 0.00 0.00 75 944.4
20210805023651 68 113 4.0 7.0 0.00 0.00 0.00 74 944.4
20210805023616 68 121 4.0 7.0 0.00 0.00 0.00 75 944.3
20210805023441 68 123 4.0 7.0 0.00 0.00 0.00 75 944.4
20210805023342 68 124 4.0 7.0 0.00 0.00 0.00 75 944.4
20210805023336 68 130 4.0 7.0 0.00 0.00 0.00 75 944.4
20210805023228 68 127 4.0 7.0 0.00 0.00 0.00 75 944.4
20210805023038 68 127 4.0 7.0 0.00 0.00 0.00 75 944.3
20210805022936 68 116 4.0 7.0 0.00 0.00 0.00 75 944.4
20210805022839 68 128 4.0 7.0 0.00 0.00 0.00 75 944.4
20210805022736 68 112 4.0 7.0 0.00 0.00 0.00 75 944.4
20210805022637 68 118 4.0 7.0 0.00 0.00 0.00 75 944.4
20210805022537 68 109 4.0 7.0 0.00 0.00 0.00 75 944.3
20210805022437 68 127 4.0 7.0 0.00 0.00 0.00 75 944.3
20210805022338 68 96 4.0 7.0 0.00 0.00 0.00 75 944.3
20210805022238 68 90 4.0 7.0 0.00 0.00 0.00 75 944.3
20210805022136 68 125 4.0 7.0 0.00 0.00 0.00 75 944.4
20210805022042 68 111 4.0 7.0 0.00 0.00 0.00 75 944.2
20210805021937 68 119 4.0 7.0 0.00 0.00 0.00 75 944.2
20210805021838 68 119 4.0 7.0 0.00 0.00 0.00 75 944.2
20210805021737 68 127 4.0 6.0 0.00 0.00 0.00 75 944.3
20210805021637 68 115 4.0 6.0 0.00 0.00 0.00 75 944.2
20210805021538 68 117 4.0 6.0 0.00 0.00 0.00 76 944.2
20210805021438 68 105 4.0 6.0 0.00 0.00 0.00 75 944.2
20210805021334 68 102 4.0 6.0 0.00 0.00 0.00 76 944.2
20210805021233 68 112 4.0 6.0 0.00 0.00 0.00 76 944.2
20210805021133 68 116 4.0 7.0 0.00 0.00 0.00 76 944.2
20210805021033 68 122 4.0 8.0 0.00 0.00 0.00 76 944.1
20210805020932 68 119 4.0 8.0 0.00 0.00 0.00 76 944.1
20210805020834 68 109 4.0 8.0 0.00 0.00 0.00 76 944.2
20210805020733 68 104 4.0 8.0 0.00 0.00 0.00 76 944.1
20210805020633 68 110 4.0 8.0 0.00 0.00 0.00 76 944.1
20210805020533 68 120 4.0 8.0 0.00 0.00 0.00 76 944.1
20210805020434 68 116 4.0 8.0 0.00 0.00 0.00 76 944.0
20210805020333 68 113 4.0 8.0 0.00 0.00 0.00 75 944.0
20210805020232 68 128 4.0 8.0 0.00 0.00 0.00 75 944.0
20210805020137 68 121 4.0 8.0 0.00 0.00 0.00 76 944.0
20210805020048 68 117 4.0 8.0 0.00 0.00 0.00 76 944.0
20210805015932 68 109 4.0 8.0 0.00 0.00 0.00 76 944.0
20210805015834 68 118 4.0 8.0 0.00 0.00 0.00 76 944.0
20210805015733 68 132 4.0 8.0 0.00 0.00 0.00 76 944.0
20210805015632 68 110 4.0 8.0 0.00 0.00 0.00 76 943.9
20210805015429 68 115 4.0 6.0 0.00 0.00 0.00 76 944.0
20210805015328 68 103 3.0 6.0 0.00 0.00 0.00 76 943.9
20210805015230 68 115 3.0 6.0 0.00 0.00 0.00 76 944.0
20210805015130 68 108 3.0 6.0 0.00 0.00 0.00 76 944.0
20210805015031 68 111 3.0 6.0 0.00 0.00 0.00 76 943.9
20210805014929 68 113 3.0 6.0 0.00 0.00 0.00 76 943.9
20210805014830 68 105 3.0 6.0 0.00 0.00 0.00 76 943.8
20210805014729 68 111 3.0 6.0 0.00 0.00 0.00 76 943.9
20210805014631 68 110 3.0 6.0 0.00 0.00 0.00 76 943.9
20210805014529 68 103 3.0 6.0 0.00 0.00 0.00 76 943.8
20210805014430 68 107 3.0 6.0 0.00 0.00 0.00 76 943.9
20210805014329 68 101 3.0 6.0 0.00 0.00 0.00 76 943.9
20210805014229 68 112 3.0 6.0 0.00 0.00 0.00 76 943.9
20210805014129 68 107 3.0 6.0 0.00 0.00 0.00 76 943.9
20210805014029 68 115 3.0 6.0 0.00 0.00 0.00 76 943.8
20210805013930 68 105 3.0 4.0 0.00 0.00 0.00 76 943.8
20210805013829 68 117 3.0 4.0 0.00 0.00 0.00 77 943.8
20210805013728 68 103 3.0 4.0 0.00 0.00 0.00 77 943.8
20210805013629 68 113 3.0 6.0 0.00 0.00 0.00 77 943.8
20210805013525 68 109 3.0 6.0 0.00 0.00 0.00 77 943.8
20210805013424 68 117 3.0 6.0 0.00 0.00 0.00 77 943.9
20210805013354 68 110 3.0 6.0 0.00 0.00 0.00 77 943.8
20210805013225 68 105 3.0 6.0 0.00 0.00 0.00 77 943.8
20210805013125 68 105 3.0 6.0 0.00 0.00 0.00 77 943.8
20210805013046 68 94 3.0 6.0 0.00 0.00 0.00 77 943.8
20210805012926 68 107 3.0 6.0 0.00 0.00 0.00 77 943.8
20210805012825 68 101 3.0 6.0 0.00 0.00 0.00 77 943.8
20210805012726 68 97 3.0 6.0 0.00 0.00 0.00 77 943.7
20210805012625 68 102 3.0 6.0 0.00 0.00 0.00 77 943.8
20210805012526 68 103 3.0 6.0 0.00 0.00 0.00 77 943.8
20210805012426 68 107 3.0 6.0 0.00 0.00 0.00 77 943.8
20210805012325 68 103 3.0 6.0 0.00 0.00 0.00 77 943.8
20210805012225 68 101 3.0 6.0 0.00 0.00 0.00 77 943.8
20210805012127 68 105 3.0 6.0 0.00 0.00 0.00 77 943.8
20210805012033 68 98 3.0 6.0 0.00 0.00 0.00 77 943.7
20210805011924 69 102 3.0 6.0 0.00 0.00 0.00 77 943.7
20210805011826 69 95 3.0 6.0 0.00 0.00 0.00 77 943.8
20210805011727 69 101 3.0 6.0 0.00 0.00 0.00 77 943.8
20210805011635 69 98 3.0 6.0 0.00 0.00 0.00 77 943.7
20210805011534 69 112 3.0 6.0 0.00 0.00 0.00 77 943.7
20210805011421 69 95 3.0 6.0 0.00 0.00 0.00 77 943.7
20210805011322 69 98 3.0 4.0 0.00 0.00 0.00 77 943.7
20210805011228 69 102 3.0 4.0 0.00 0.00 0.00 77 943.7
20210805011126 69 102 3.0 4.0 0.00 0.00 0.00 77 943.8
20210805011020 69 105 2.0 4.0 0.00 0.00 0.00 77 943.7
20210805010922 69 114 2.0 4.0 0.00 0.00 0.00 77 943.7
20210805010822 69 103 2.0 4.0 0.00 0.00 0.00 77 943.7
20210805010720 69 107 2.0 3.0 0.00 0.00 0.00 77 943.7
20210805010622 69 99 2.0 4.0 0.00 0.00 0.00 77 943.7
20210805010528 69 100 2.0 4.0 0.00 0.00 0.00 77 943.7
20210805010447 69 101 2.0 4.0 0.00 0.00 0.00 77 943.8
20210805010321 69 98 2.0 4.0 0.00 0.00 0.00 77 943.7
20210805010222 69 98 2.0 4.0 0.00 0.00 0.00 77 943.7
20210805010153 69 98 2.0 4.0 0.00 0.00 0.00 77 943.8
20210805010047 69 96 2.0 4.0 0.00 0.00 0.00 77 943.7
20210805005921 69 95 2.0 4.0 0.00 0.00 0.00 77 943.6
20210805005823 69 95 3.0 4.0 0.00 0.00 0.00 77 943.7
20210805005730 69 95 3.0 4.0 0.00 0.00 0.00 77 943.7
20210805005631 69 107 3.0 4.0 0.00 0.00 0.00 77 943.8
20210805005516 69 100 3.0 4.0 0.00 0.00 0.00 77 943.8
20210805005416 69 106 3.0 4.0 0.00 0.00 0.00 77 943.8
20210805005316 69 103 3.0 4.0 0.00 0.00 0.00 78 943.7
20210805005221 69 103 3.0 4.0 0.00 0.00 0.00 78 943.8
20210805005118 69 111 3.0 4.0 0.00 0.00 0.00 78 943.7
20210805005017 69 111 3.0 4.0 0.00 0.00 0.00 78 943.8
20210805004917 69 113 3.0 4.0 0.00 0.00 0.00 78 943.7
20210805004817 69 109 3.0 4.0 0.00 0.00 0.00 78 943.7
20210805004718 69 111 3.0 4.0 0.00 0.00 0.00 78 943.7
20210805004617 69 109 3.0 4.0 0.00 0.00 0.00 77 943.7
20210805004517 69 109 3.0 4.0 0.00 0.00 0.00 78 943.8
20210805004418 69 105 3.0 4.0 0.00 0.00 0.00 77 943.7
20210805004318 69 105 3.0 4.0 0.00 0.00 0.00 77 943.6
20210805004216 69 106 3.0 4.0 0.00 0.00 0.00 77 943.7
20210805004118 69 103 3.0 4.0 0.00 0.00 0.00 77 943.6
20210805004029 69 107 3.0 4.0 0.00 0.00 0.00 77 943.6
20210805003918 69 107 3.0 4.0 0.00 0.00 0.00 77 943.6
20210805003812 69 106 3.0 4.0 0.00 0.00 0.00 77 943.6
20210805003713 69 109 3.0 4.0 0.00 0.00 0.00 77 943.5
20210805003613 69 100 3.0 4.0 0.00 0.00 0.00 77 943.6
20210805003513 69 111 2.0 4.0 0.00 0.00 0.00 77 943.6
20210805003413 69 104 2.0 4.0 0.00 0.00 0.00 77 943.6
20210805003313 69 116 2.0 4.0 0.00 0.00 0.00 77 943.6
20210805003245 69 108 2.0 4.0 0.00 0.00 0.00 77 943.5
20210805003114 69 107 2.0 4.0 0.00 0.00 0.00 77 943.6
20210805003014 69 110 2.0 4.0 0.00 0.00 0.00 77 943.5
20210805002913 69 117 2.0 4.0 0.00 0.00 0.00 77 943.5
20210805002818 69 114 2.0 4.0 0.00 0.00 0.00 77 943.5
20210805002713 69 113 2.0 4.0 0.00 0.00 0.00 77 943.5
20210805002614 69 113 2.0 4.0 0.00 0.00 0.00 77 943.6
20210805002513 69 110 3.0 4.0 0.00 0.00 0.00 77 943.5
20210805002413 69 103 3.0 4.0 0.00 0.00 0.00 77 943.5
20210805002314 69 104 3.0 4.0 0.00 0.00 0.00 77 943.6
20210805002213 69 103 3.0 4.0 0.00 0.00 0.00 77 943.5
20210805002113 69 101 3.0 4.0 0.00 0.00 0.00 77 943.5
20210805002014 69 107 3.0 4.0 0.00 0.00 0.00 77 943.6
20210805001909 69 102 3.0 4.0 0.00 0.00 0.00 78 943.6
20210805001809 69 102 3.0 4.0 0.00 0.00 0.00 77 943.5
20210805001708 69 106 3.0 4.0 0.00 0.00 0.00 78 943.5
20210805001607 69 108 3.0 4.0 0.00 0.00 0.00 78 943.5
20210805001504 69 106 3.0 4.0 0.00 0.00 0.00 77 943.5
20210805001359 69 114 3.0 4.0 0.00 0.00 0.00 77 943.4
20210805001301 69 105 3.0 4.0 0.00 0.00 0.00 77 943.5
20210805001158 69 111 3.0 4.0 0.00 0.00 0.00 77 943.6
20210805001116 69 112 3.0 4.0 0.00 0.00 0.00 77 943.5
20210805000956 69 98 3.0 4.0 0.00 0.00 0.00 77 943.5
20210805000856 69 103 3.0 4.0 0.00 0.00 0.00 77 943.6
20210805000752 69 92 3.0 4.0 0.00 0.00 0.00 77 943.5
20210805000651 69 92 3.0 7.0 0.00 0.00 0.00 77 943.5
20210805000551 69 100 3.0 7.0 0.00 0.00 0.00 77 943.4
20210805000451 69 108 3.0 7.0 0.00 0.00 0.00 77 943.5
20210805000343 69 103 3.0 7.0 0.00 0.00 0.00 77 943.5
20210805000243 69 94 3.0 7.0 0.00 0.00 0.00 77 943.4
20210805000142 70 80 3.0 7.0 0.00 0.00 0.00 76 943.6
20210805000043 70 94 3.0 7.0 0.00 0.00 0.00 77 943.5
20210804235943 69 92 4.0 7.0 0.00 0.00 0.00 77 943.4
20210804235837 70 95 4.0 7.0 0.00 0.00 0.00 77 943.4
20210804235736 70 96 4.0 7.0 0.00 0.00 0.00 77 943.4
20210804235641 70 94 4.0 7.0 0.00 0.00 0.00 77 943.4
20210804235538 70 101 4.0 7.0 0.00 0.00 0.00 77 943.4
20210804235436 70 78 4.0 7.0 0.00 0.00 0.00 76 943.4
20210804235330 70 101 4.0 7.0 0.00 0.00 0.00 77 943.3
20210804235237 70 89 4.0 7.0 0.00 0.00 0.00 77 943.3
20210804235129 70 104 4.0 7.0 0.00 0.00 0.00 77 943.2
20210804235030 70 96 4.0 7.0 0.00 0.00 0.00 76 943.3
20210804234928 70 88 4.0 7.0 0.00 0.00 0.00 77 943.3
20210804234824 70 105 3.0 7.0 0.00 0.00 0.00 77 943.2
20210804234723 70 82 3.0 7.0 0.00 0.00 0.00 77 943.1
20210804234623 70 105 3.0 6.0 0.00 0.00 0.00 77 943.2
20210804234523 70 111 3.0 6.0 0.00 0.00 0.00 77 943.2
20210804234422 70 123 3.0 6.0 0.00 0.00 0.00 77 943.2
20210804234317 70 103 3.0 6.0 0.00 0.00 0.00 77 943.2
20210804234217 70 115 3.0 6.0 0.00 0.00 0.00 77 943.1
20210804234129 70 104 3.0 6.0 0.00 0.00 0.00 77 943.1
20210804234018 70 112 3.0 6.0 0.00 0.00 0.00 77 943.2
20210804233916 70 96 3.0 6.0 0.00 0.00 0.00 77 943.1
20210804233810 70 123 3.0 6.0 0.00 0.00 0.00 77 943.1
20210804233711 70 102 3.0 6.0 0.00 0.00 0.00 77 943.2
20210804233610 70 105 3.0 6.0 0.00 0.00 0.00 77 943.2
20210804233511 70 109 3.0 6.0 0.00 0.00 0.00 76 943.2
20210804233407 70 104 3.0 6.0 0.00 0.00 0.00 76 943.1
20210804233258 70 115 3.0 6.0 0.00 0.00 0.00 76 943.2
20210804233158 70 103 3.0 6.0 0.00 0.00 0.00 76 943.1
20210804233059 70 87 3.0 6.0 0.00 0.00 0.00 76 943.2
20210804232959 70 117 3.0 6.0 0.00 0.00 0.00 76 943.1
20210804232859 70 122 3.0 6.0 0.00 0.00 0.00 76 943.1
20210804232752 70 105 3.0 6.0 0.00 0.00 0.00 76 943.1
20210804232653 70 82 3.0 5.0 0.00 0.00 0.00 77 943.1
20210804232553 70 91 3.0 5.0 0.00 0.00 0.00 77 943.1
20210804232453 70 92 3.0 5.0 0.00 0.00 0.00 77 943.1
20210804232353 70 110 3.0 5.0 0.00 0.00 0.00 76 943.1
20210804232248 70 92 3.0 6.0 0.00 0.00 0.00 76 943.1
20210804232149 70 65 3.0 6.0 0.00 0.00 0.00 76 943.1
20210804232052 70 82 3.0 6.0 0.00 0.00 0.00 76 943.1
20210804231950 70 84 3.0 6.0 0.00 0.00 0.00 76 943.1
20210804231846 70 84 3.0 6.0 0.00 0.00 0.00 76 943.1
20210804231741 70 56 3.0 6.0 0.00 0.00 0.00 76 943.1
20210804231641 70 94 3.0 7.0 0.00 0.00 0.00 76 943.0
20210804231542 71 61 3.0 7.0 0.00 0.00 0.00 76 943.1
20210804231442 71 74 3.0 7.0 0.00 0.00 0.00 76 943.0
20210804231341 71 67 3.0 7.0 0.00 0.00 0.00 76 943.0
20210804231235 71 74 3.0 7.0 0.00 0.00 0.00 75 943.0
20210804231136 71 43 3.0 7.0 0.00 0.00 0.00 76 943.0
20210804231035 71 65 3.0 7.0 0.00 0.00 0.00 75 943.0
20210804230935 71 77 3.0 7.0 0.00 0.00 0.00 75 942.9
20210804230836 71 38 3.0 7.0 0.00 0.00 0.00 75 943.0
20210804230733 71 5 3.0 7.0 0.00 0.00 0.00 75 943.0
20210804230634 71 74 3.0 6.0 0.00 0.00 0.00 75 942.9
20210804230533 71 83 3.0 6.0 0.00 0.00 0.00 75 942.9
20210804230430 71 96 3.0 7.0 0.00 0.00 0.00 74 943.0
20210804230329 71 97 3.0 7.0 0.00 0.00 0.00 74 942.9
20210804230225 71 88 3.0 7.0 0.00 0.00 0.00 74 943.0
20210804230122 71 104 3.0 7.0 0.00 0.00 0.00 73 942.9
20210804230023 71 104 4.0 7.0 0.00 0.00 0.00 72 943.0
20210804225923 71 107 4.0 7.0 0.00 0.00 0.00 73 942.9
20210804225823 71 124 3.0 7.0 0.00 0.00 0.00 73 942.9
20210804225717 71 121 4.0 7.0 0.00 0.00 0.00 73 942.9
20210804225617 71 105 4.0 7.0 0.00 0.00 0.00 73 942.9
20210804225522 71 120 4.0 7.0 0.00 0.00 0.00 73 942.9
20210804225416 71 107 3.0 7.0 0.00 0.00 0.00 73 942.9
20210804225316 71 109 3.0 7.0 0.00 0.00 0.00 74 942.9
20210804225216 71 107 3.0 7.0 0.00 0.00 0.00 73 943.0
20210804225113 71 123 3.0 7.0 0.00 0.00 0.00 73 943.0
20210804225013 71 97 3.0 7.0 0.00 0.00 0.00 73 943.0
20210804224912 71 117 3.0 7.0 0.00 0.00 0.00 73 942.8
20210804224811 71 105 3.0 7.0 0.00 0.00 0.00 72 942.9
20210804224707 71 119 3.0 7.0 0.00 0.00 0.00 73 943.0
20210804224606 71 115 3.0 7.0 0.00 0.00 0.00 73 943.0
20210804224507 71 111 3.0 6.0 0.00 0.00 0.00 75 943.0
20210804224407 71 78 3.0 6.0 0.00 0.00 0.00 74 942.9
20210804224305 71 75 4.0 7.0 0.00 0.00 0.00 74 942.9
20210804224201 71 90 4.0 7.0 0.00 0.00 0.00 74 942.9
20210804224101 71 81 4.0 7.0 0.00 0.00 0.00 74 942.9
20210804223959 71 63 3.0 7.0 0.00 0.00 0.00 74 942.9
20210804223858 71 81 3.0 7.0 0.00 0.00 0.00 74 942.9
20210804223759 71 97 3.0 7.0 0.00 0.00 0.00 73 942.9
20210804223653 71 84 3.0 8.0 0.00 0.00 0.00 73 942.9
20210804223552 71 55 3.0 8.0 0.00 0.00 0.00 73 943.0
20210804223453 71 58 3.0 9.0 0.00 0.00 0.00 73 942.9
20210804223353 71 82 3.0 9.0 0.00 0.00 0.00 72 943.0
20210804223253 72 82 3.0 9.0 0.00 0.00 0.00 74 942.9
20210804223150 72 82 4.0 9.0 0.00 0.00 0.00 73 942.9
20210804223050 72 69 4.0 9.0 0.00 0.00 0.00 73 942.9
20210804222949 72 59 4.0 9.0 0.00 0.00 0.00 72 942.9
20210804222848 72 66 4.0 9.0 0.00 0.00 0.00 73 942.9
20210804222744 72 76 4.0 10.0 0.00 0.00 0.00 72 942.9
20210804222636 72 52 4.0 10.0 0.00 0.00 0.00 71 942.9
20210804222536 72 69 3.0 10.0 0.00 0.00 0.00 71 943.0
20210804222437 72 57 3.0 10.0 0.00 0.00 0.00 72 942.9
20210804222338 72 36 3.0 10.0 0.00 0.00 0.00 71 942.9
20210804222237 72 69 2.0 10.0 0.00 0.00 0.00 72 943.0
20210804222135 73 63 2.0 10.0 0.00 0.00 0.00 71 942.9
20210804222036 73 42 2.0 10.0 0.00 0.00 0.00 71 942.9
20210804221934 73 30 2.0 10.0 0.00 0.00 0.00 71 942.8
20210804221835 73 46 2.0 10.0 0.00 0.00 0.00 71 942.9
20210804221735 73 322 2.0 6.0 0.00 0.00 0.00 71 942.8
20210804221635 73 29 2.0 6.0 0.00 0.00 0.00 71 942.9
20210804221534 74 271 2.0 6.0 0.00 0.00 0.00 72 942.9
20210804221434 74 0 3.0 6.0 0.00 0.00 0.00 72 942.9
20210804221332 74 53 3.0 6.0 0.00 0.00 0.00 72 942.9
20210804221232 74 49 3.0 6.0 0.00 0.00 0.00 71 942.9
20210804221132 73 59 3.0 6.0 0.00 0.00 0.00 71 942.8
20210804221031 73 63 3.0 6.0 0.00 0.00 0.00 72 942.8
20210804220930 73 350 3.0 6.0 0.00 0.00 0.00 70 942.8
20210804220830 73 333 3.0 6.0 0.00 0.00 0.00 72 942.8
20210804220729 73 67 3.0 8.0 0.00 0.00 0.00 71 942.9
20210804220626 73 285 3.0 8.0 0.00 0.00 0.00 70 942.9
20210804220525 73 31 3.0 8.0 0.00 0.00 0.00 70 942.8
20210804220424 73 78 3.0 8.0 0.00 0.00 0.00 72 942.9
20210804220326 73 69 3.0 8.0 0.00 0.00 0.00 71 942.9
20210804220226 73 99 3.0 8.0 0.00 0.00 0.00 70 942.8
20210804220136 73 23 4.0 8.0 0.00 0.00 0.00 71 942.9
20210804220041 73 47 4.0 8.0 0.00 0.00 0.00 73 942.9
20210804215922 73 86 4.0 8.0 0.00 0.00 0.00 71 942.8
20210804215819 73 72 4.0 8.0 0.00 0.00 0.00 71 942.8
20210804215719 73 69 4.0 8.0 0.00 0.00 0.00 70 942.8
20210804215618 73 77 4.0 10.0 0.00 0.00 0.00 72 942.8
20210804215522 73 102 4.0 10.0 0.00 0.00 0.00 71 942.8
20210804215413 73 28 4.0 10.0 0.00 0.00 0.00 71 942.9
20210804215314 73 69 3.0 10.0 0.00 0.00 0.00 71 942.8
20210804215214 73 63 3.0 10.0 0.00 0.00 0.00 71 942.8
20210804215114 73 67 3.0 10.0 0.00 0.00 0.00 71 942.8
20210804215021 73 36 3.0 10.0 0.00 0.00 0.00 71 942.8
20210804214907 73 51 3.0 10.0 0.00 0.00 0.00 70 942.8
20210804214806 73 74 3.0 10.0 0.00 0.00 0.00 70 942.8
20210804214708 73 64 3.0 10.0 0.00 0.00 0.00 70 942.8
20210804214607 73 63 3.0 8.0 0.00 0.00 0.00 72 942.8
20210804214508 73 67 3.0 8.0 0.00 0.00 0.00 71 942.8
20210804214402 73 19 3.0 8.0 0.00 0.00 0.00 71 942.8
20210804214302 73 347 3.0 8.0 0.00 0.00 0.00 70 942.8
20210804214204 73 13 3.0 8.0 0.00 0.00 0.00 70 942.8
20210804214100 74 355 3.0 8.0 0.00 0.00 0.00 70 942.8
20210804214001 74 28 3.0 8.0 0.00 0.00 0.00 68 942.8
20210804213859 74 86 3.0 5.0 0.00 0.00 0.00 68 942.7
20210804213758 74 65 3.0 5.0 0.00 0.00 0.00 68 942.8
20210804213658 74 92 3.0 5.0 0.00 0.00 0.00 69 942.7
20210804213600 75 74 3.0 6.0 0.00 0.00 0.00 70 942.7
20210804213501 75 53 2.0 6.0 0.00 0.00 0.00 70 942.7
20210804213347 74 68 2.0 6.0 0.00 0.00 0.00 69 942.7
20210804213246 74 69 2.0 6.0 0.00 0.00 0.00 68 942.7
20210804213146 74 5 2.0 6.0 0.00 0.00 0.00 67 942.7
20210804213050 74 67 2.0 6.0 0.00 0.00 0.00 70 942.7
20210804212945 74 44 2.0 6.0 0.00 0.00 0.00 69 942.7
20210804212838 74 344 2.0 6.0 0.00 0.00 0.00 70 942.8
20210804212739 74 329 2.0 6.0 0.00 0.00 0.00 72 942.7
20210804212638 73 96 1.0 6.0 0.00 0.00 0.00 73 942.7
20210804212538 73 58 2.0 3.0 0.00 0.00 0.00 72 942.7
20210804212439 73 57 2.0 5.0 0.00 0.00 0.00 72 942.8
20210804212333 73 61 2.0 5.0 0.00 0.00 0.00 72 942.6
20210804212234 72 61 2.0 5.0 0.00 0.00 0.00 73 942.7
20210804212134 72 24 2.0 5.0 0.00 0.00 0.00 72 942.7
20210804212035 72 27 2.0 5.0 0.00 0.00 0.00 72 942.7
20210804211934 72 25 2.0 5.0 0.00 0.00 0.00 73 942.6
20210804211830 73 63 2.0 5.0 0.00 0.00 0.00 71 942.7
20210804211726 73 9 2.0 5.0 0.00 0.00 0.00 71 942.8
20210804211628 73 331 3.0 6.0 0.00 0.00 0.00 70 942.7
20210804211527 73 12 2.0 6.0 0.00 0.00 0.00 70 942.7
20210804211428 73 20 3.0 6.0 0.00 0.00 0.00 70 942.7
20210804211320 73 5 3.0 6.0 0.00 0.00 0.00 70 942.7
20210804211221 73 11 3.0 8.0 0.00 0.00 0.00 71 942.7
20210804211122 74 355 3.0 8.0 0.00 0.00 0.00 71 942.6
20210804211021 74 11 4.0 8.0 0.00 0.00 0.00 70 942.6
20210804210921 74 28 4.0 8.0 0.00 0.00 0.00 70 942.6
20210804210819 74 355 4.0 8.0 0.00 0.00 0.00 71 942.7
20210804210718 74 33 4.0 8.0 0.00 0.00 0.00 70 942.7
20210804210619 74 130 4.0 8.0 0.00 0.00 0.00 71 942.7
20210804210517 74 355 4.0 8.0 0.00 0.00 0.00 68 942.7
20210804210416 74 107 4.0 8.0 0.00 0.00 0.00 67 942.7
20210804210309 74 113 4.0 8.0 0.00 0.00 0.00 68 942.7
20210804210212 74 102 3.0 8.0 0.00 0.00 0.00 68 942.6
20210804210109 74 84 3.0 8.0 0.00 0.00 0.00 68 942.6
20210804210009 74 123 3.0 8.0 0.00 0.00 0.00 67 942.7
20210804205908 74 85 3.0 8.0 0.00 0.00 0.00 65 942.6
20210804205806 74 137 3.0 8.0 0.00 0.00 0.00 65 942.7
20210804205706 74 51 3.0 8.0 0.00 0.00 0.00 68 942.6
20210804205605 75 71 3.0 8.0 0.00 0.00 0.00 68 942.6
20210804205504 75 75 3.0 8.0 0.00 0.00 0.00 68 942.6
20210804205403 75 71 4.0 8.0 0.00 0.00 0.00 67 942.7
20210804205257 74 348 4.0 8.0 0.00 0.00 0.00 68 942.7
20210804205201 74 35 4.0 8.0 0.00 0.00 0.00 68 942.7
20210804205100 74 33 3.0 8.0 0.00 0.00 0.00 67 942.6
20210804204956 74 85 3.0 8.0 0.00 0.00 0.00 67 942.7
20210804204857 74 22 4.0 8.0 0.00 0.00 0.00 70 942.7
20210804204750 74 27 4.0 8.0 0.00 0.00 0.00 70 942.7
20210804204652 74 68 4.0 9.0 0.00 0.00 0.00 66 942.7
20210804204552 74 121 4.0 9.0 0.00 0.00 0.00 66 942.7
20210804204452 75 11 4.0 9.0 0.00 0.00 0.00 68 942.7
20210804204351 75 78 4.0 9.0 0.00 0.00 0.00 68 942.8
20210804204248 75 86 4.0 9.0 0.00 0.00 0.00 70 942.7
20210804204146 74 76 4.0 9.0 0.00 0.00 0.00 70 942.8
20210804204046 74 31 4.0 9.0 0.00 0.00 0.00 69 942.8
20210804203945 74 100 4.0 9.0 0.00 0.00 0.00 68 942.8
20210804203845 74 72 4.0 9.0 0.00 0.00 0.00 68 942.8
20210804203738 74 92 4.0 9.0 0.00 0.00 0.00 66 942.8
20210804203639 74 95 4.0 9.0 0.00 0.00 0.00 67 942.9
20210804203539 74 81 3.0 9.0 0.00 0.00 0.00 68 942.8
20210804203438 75 50 4.0 11.0 0.00 0.00 0.00 66 942.8
20210804203338 75 53 3.0 11.0 0.00 0.00 0.00 66 942.9
20210804203234 75 55 3.0 11.0 0.00 0.00 0.00 67 943.0
20210804203139 75 34 3.0 11.0 0.00 0.00 0.00 68 942.9
20210804203035 74 66 3.0 11.0 0.00 0.00 0.00 70 942.9
20210804202936 74 41 3.0 11.0 0.00 0.00 0.00 69 943.0
20210804202833 74 71 3.0 11.0 0.00 0.00 0.00 67 942.9
20210804202726 74 24 3.0 11.0 0.00 0.00 0.00 68 943.0
20210804202626 75 344 3.0 11.0 0.00 0.00 0.00 68 942.9
20210804202531 75 47 3.0 11.0 0.00 0.00 0.00 68 943.0
20210804202428 74 355 3.0 7.0 0.00 0.00 0.00 71 942.8
20210804202327 74 346 3.0 7.0 0.00 0.00 0.00 70 943.0
20210804202221 74 29 3.0 7.0 0.00 0.00 0.00 68 943.0
20210804202120 73 65 3.0 7.0 0.00 0.00 0.00 66 942.9
20210804202021 74 74 4.0 8.0 0.00 0.00 0.00 67 942.9
20210804201921 74 94 4.0 8.0 0.00 0.00 0.00 66 943.0
20210804201821 74 100 4.0 8.0 0.00 0.00 0.00 68 942.9
20210804201719 74 105 4.0 9.0 0.00 0.00 0.00 65 942.8
20210804201617 74 94 4.0 12.0 0.00 0.00 0.00 67 942.9
20210804201516 74 71 5.0 12.0 0.00 0.00 0.00 67 942.9
20210804201417 74 26 5.0 12.0 0.00 0.00 0.00 69 943.0
20210804201316 74 29 5.0 12.0 0.00 0.00 0.00 72 943.0
20210804201216 74 69 6.0 12.0 0.00 0.00 0.00 71 943.0
20210804201109 74 56 6.0 12.0 0.00 0.00 0.00 71 942.9
20210804201009 73 57 5.0 12.0 0.00 0.00 0.00 70 943.0
20210804200908 73 22 6.0 12.0 0.00 0.00 0.00 70 943.0
20210804200809 73 71 5.0 12.0 0.00 0.00 0.00 68 943.0
20210804200705 73 69 5.0 12.0 0.00 0.00 0.00 68 943.0
20210804200604 73 76 4.0 12.0 0.00 0.00 0.00 68 943.0
20210804200502 73 77 4.0 12.0 0.00 0.00 0.00 69 943.0
20210804200403 74 67 3.0 12.0 0.00 0.00 0.00 68 943.1
20210804200303 74 92 3.0 12.0 0.00 0.00 0.00 71 943.0
20210804200202 73 115 2.0 6.0 0.00 0.00 0.00 71 943.0
20210804200056 73 44 3.0 6.0 0.00 0.00 0.00 72 943.1
20210804195957 73 92 3.0 6.0 0.00 0.00 0.00 69 943.0
20210804195856 74 84 2.0 6.0 0.00 0.00 0.00 68 943.0
20210804195757 74 74 2.0 6.0 0.00 0.00 0.00 68 943.0
20210804195652 74 53 2.0 6.0 0.00 0.00 0.00 69 943.0
20210804195553 74 55 2.0 6.0 0.00 0.00 0.00 69 943.0
20210804195453 74 55 2.0 6.0 0.00 0.00 0.00 69 943.1
20210804195354 74 46 3.0 6.0 0.00 0.00 0.00 68 943.0
20210804195251 74 40 3.0 6.0 0.00 0.00 0.00 67 943.0
20210804195145 74 59 3.0 6.0 0.00 0.00 0.00 68 943.0
20210804195044 74 56 2.0 6.0 0.00 0.00 0.00 69 943.1
20210804194945 74 80 2.0 6.0 0.00 0.00 0.00 70 943.0
20210804194846 74 57 3.0 6.0 0.00 0.00 0.00 68 943.0
20210804194744 75 44 3.0 6.0 0.00 0.00 0.00 72 943.1
20210804194638 75 67 3.0 8.0 0.00 0.00 0.00 70 943.0
20210804194543 74 29 3.0 8.0 0.00 0.00 0.00 70 943.1
20210804194440 74 332 3.0 8.0 0.00 0.00 0.00 71 943.1
20210804194339 74 340 3.0 8.0 0.00 0.00 0.00 71 943.1
20210804194239 73 24 3.0 8.0 0.00 0.00 0.00 70 943.1
20210804194134 73 34 3.0 8.0 0.00 0.00 0.00 70 943.1
20210804194032 74 12 4.0 11.0 0.00 0.00 0.00 69 943.1
20210804193933 74 342 4.0 11.0 0.00 0.00 0.00 69 943.1
20210804193832 74 16 5.0 11.0 0.00 0.00 0.00 69 943.0
20210804193734 73 309 5.0 11.0 0.00 0.00 0.00 72 943.1
20210804193628 73 28 5.0 11.0 0.00 0.00 0.00 71 943.1
20210804193528 73 70 5.0 11.0 0.00 0.00 0.00 69 943.1
20210804193428 73 147 5.0 11.0 0.00 0.00 0.00 68 943.1
20210804193326 74 44 6.0 11.0 0.00 0.00 0.00 68 943.2
20210804193228 73 63 6.0 11.0 0.00 0.00 0.00 69 943.1
20210804193124 73 74 6.0 11.0 0.00 0.00 0.00 70 943.1
20210804193023 73 54 5.0 11.0 0.00 0.00 0.00 69 943.1
20210804192925 72 105 5.0 11.0 0.00 0.00 0.00 68 943.1
20210804192823 72 92 4.0 11.0 0.00 0.00 0.00 69 943.1
20210804192722 72 82 4.0 10.0 0.00 0.00 0.00 67 943.1
20210804192614 72 115 4.0 10.0 0.00 0.00 0.00 67 943.1
20210804192519 72 94 4.0 10.0 0.00 0.00 0.00 69 943.1
20210804192417 72 106 3.0 8.0 0.00 0.00 0.00 70 943.1
20210804192317 72 125 3.0 8.0 0.00 0.00 0.00 71 943.1
20210804192215 72 110 3.0 8.0 0.00 0.00 0.00 68 943.1
20210804192111 73 117 3.0 8.0 0.00 0.00 0.00 69 943.2
20210804192018 73 106 4.0 10.0 0.00 0.00 0.00 68 943.2
20210804191910 74 103 4.0 10.0 0.00 0.00 0.00 70 943.1
20210804191811 74 91 4.0 10.0 0.00 0.00 0.00 69 943.1
20210804191709 74 30 5.0 10.0 0.00 0.00 0.00 69 943.2
20210804191606 74 24 5.0 10.0 0.00 0.00 0.00 70 943.2
20210804191503 74 59 5.0 10.0 0.00 0.00 0.00 67 943.2
20210804191402 74 90 5.0 10.0 0.00 0.00 0.00 71 943.1
20210804191303 74 59 5.0 10.0 0.00 0.00 0.00 72 943.1
20210804191203 73 50 5.0 10.0 0.00 0.00 0.00 69 943.2
20210804191056 73 76 5.0 10.0 0.00 0.00 0.00 69 943.2
20210804190956 73 105 5.0 10.0 0.00 0.00 0.00 69 943.2
20210804190857 73 109 5.0 13.0 0.00 0.00 0.00 72 943.2
20210804190756 73 82 5.0 13.0 0.00 0.00 0.00 71 943.2
20210804190657 73 69 6.0 13.0 0.00 0.00 0.00 71 943.2
20210804190554 73 108 6.0 13.0 0.00 0.00 0.00 67 943.1
20210804190451 74 98 6.0 13.0 0.00 0.00 0.00 68 943.2
20210804190352 74 114 6.0 13.0 0.00 0.00 0.00 73 943.1
20210804190251 73 302 6.0 13.0 0.00 0.00 0.00 75 943.1
20210804190151 73 355 6.0 13.0 0.00 0.00 0.00 73 943.1
20210804190044 73 106 6.0 13.0 0.00 0.00 0.00 69 943.1
20210804185946 72 70 6.0 13.0 0.00 0.00 0.00 71 943.1
20210804185845 73 125 6.0 12.0 0.00 0.00 0.00 68 943.2
20210804185745 73 128 5.0 10.0 0.00 0.00 0.00 69 943.1
20210804185644 73 118 4.0 10.0 0.00 0.00 0.00 67 943.2
20210804185539 73 99 4.0 10.0 0.00 0.00 0.00 68 943.2
20210804185438 73 87 4.0 10.0 0.00 0.00 0.00 71 943.2
20210804185338 73 91 3.0 9.0 0.00 0.00 0.00 74 943.1
20210804185239 72 106 3.0 9.0 0.00 0.00 0.00 74 943.1
20210804185139 72 46 3.0 9.0 0.00 0.00 0.00 71 943.3
20210804185034 72 114 3.0 9.0 0.00 0.00 0.00 72 943.3
20210804184934 72 104 3.0 9.0 0.00 0.00 0.00 70 943.4
20210804184837 72 88 3.0 7.0 0.00 0.00 0.00 70 943.4
20210804184734 72 74 3.0 8.0 0.00 0.00 0.00 69 943.4
20210804184633 72 36 3.0 8.0 0.00 0.00 0.00 71 943.3
20210804184529 72 61 3.0 8.0 0.00 0.00 0.00 72 943.5
20210804184426 72 88 3.0 8.0 0.00 0.00 0.00 71 943.4
20210804184327 72 29 3.0 8.0 0.00 0.00 0.00 73 943.4
20210804184226 72 55 3.0 8.0 0.00 0.00 0.00 71 943.5
20210804184127 72 70 3.0 8.0 0.00 0.00 0.00 73 943.5
20210804184026 72 72 3.0 8.0 0.00 0.00 0.00 71 943.5
20210804183922 72 68 3.0 8.0 0.00 0.00 0.00 73 943.5
20210804183822 72 46 3.0 8.0 0.00 0.00 0.00 71 943.5
20210804183720 72 58 2.0 7.0 0.00 0.00 0.00 73 943.6
20210804183622 72 59 2.0 7.0 0.00 0.00 0.00 73 943.6
20210804183520 71 31 2.0 5.0 0.00 0.00 0.00 73 943.5
20210804183415 71 302 2.0 4.0 0.00 0.00 0.00 73 943.5
20210804183316 71 5 2.0 5.0 0.00 0.00 0.00 73 943.5
20210804183216 71 38 2.0 5.0 0.00 0.00 0.00 74 943.6
20210804183115 71 15 2.0 5.0 0.00 0.00 0.00 74 943.6
20210804183019 71 318 2.0 5.0 0.00 0.00 0.00 74 943.5
20210804182909 72 26 3.0 5.0 0.00 0.00 0.00 73 943.5
20210804182808 72 62 3.0 5.0 0.00 0.00 0.00 71 943.5
20210804182713 72 44 3.0 7.0 0.00 0.00 0.00 70 943.5
20210804182610 72 5 3.0 7.0 0.00 0.00 0.00 74 943.5
20210804182505 72 69 4.0 8.0 0.00 0.00 0.00 70 943.5
20210804182402 72 74 4.0 9.0 0.00 0.00 0.00 71 943.5
20210804182306 72 36 4.0 9.0 0.00 0.00 0.00 71 943.6
20210804182203 72 78 5.0 10.0 0.00 0.00 0.00 73 943.5
20210804182106 72 57 5.0 10.0 0.00 0.00 0.00 71 943.5
20210804181959 72 80 5.0 10.0 0.00 0.00 0.00 71 943.5
20210804181858 72 59 6.0 10.0 0.00 0.00 0.00 72 943.4
20210804181758 72 87 6.0 10.0 0.00 0.00 0.00 73 943.5
20210804181705 71 47 6.0 10.0 0.00 0.00 0.00 71 943.7
20210804181558 71 75 5.0 10.0 0.00 0.00 0.00 72 943.6
20210804181451 71 79 5.0 10.0 0.00 0.00 0.00 75 943.6
20210804181400 71 94 5.0 10.0 0.00 0.00 0.00 71 943.6
20210804181252 71 69 4.0 10.0 0.00 0.00 0.00 72 943.5
20210804181150 71 78 4.0 10.0 0.00 0.00 0.00 70 943.6
20210804181056 71 135 4.0 10.0 0.00 0.00 0.00 71 943.6
20210804180946 71 96 4.0 10.0 0.00 0.00 0.00 69 943.6
20210804180847 72 80 3.0 10.0 0.00 0.00 0.00 73 943.6
20210804180746 71 42 3.0 8.0 0.00 0.00 0.00 72 943.6
20210804180648 72 52 3.0 8.0 0.00 0.00 0.00 72 943.5
20210804180545 72 9 3.0 8.0 0.00 0.00 0.00 70 943.6
20210804180440 72 11 3.0 8.0 0.00 0.00 0.00 71 943.5
20210804180339 72 51 3.0 8.0 0.00 0.00 0.00 72 943.5
20210804180240 72 46 3.0 8.0 0.00 0.00 0.00 72 943.5
20210804180139 71 21 3.0 8.0 0.00 0.00 0.00 72 943.5
20210804180040 71 73 2.0 7.0 0.00 0.00 0.00 71 943.5
20210804175933 71 355 2.0 7.0 0.00 0.00 0.00 73 943.6
20210804175832 71 15 3.0 7.0 0.00 0.00 0.00 72 943.6
20210804175734 71 53 3.0 8.0 0.00 0.00 0.00 74 943.6
20210804175632 71 36 3.0 8.0 0.00 0.00 0.00 73 943.6
20210804175533 72 64 3.0 8.0 0.00 0.00 0.00 72 943.5
20210804175427 72 55 3.0 8.0 0.00 0.00 0.00 72 943.6
20210804175327 72 48 3.0 8.0 0.00 0.00 0.00 71 943.6
20210804175226 72 10 3.0 8.0 0.00 0.00 0.00 72 943.6
20210804175126 72 33 3.0 9.0 0.00 0.00 0.00 72 943.5
20210804175032 72 336 4.0 9.0 0.00 0.00 0.00 71 943.6
20210804174921 72 13 4.0 9.0 0.00 0.00 0.00 71 943.5
20210804174822 72 60 4.0 11.0 0.00 0.00 0.00 68 943.5
20210804174721 73 113 4.0 12.0 0.00 0.00 0.00 68 943.6
20210804174620 73 75 4.0 12.0 0.00 0.00 0.00 72 943.5
20210804174521 73 29 4.0 12.0 0.00 0.00 0.00 75 943.5
20210804174415 72 22 5.0 12.0 0.00 0.00 0.00 74 943.6
20210804174314 72 54 5.0 12.0 0.00 0.00 0.00 75 943.5
20210804174215 71 71 5.0 12.0 0.00 0.00 0.00 73 943.6
20210804174116 72 49 5.0 12.0 0.00 0.00 0.00 74 943.5
20210804174023 72 98 5.0 12.0 0.00 0.00 0.00 71 943.5
20210804173911 72 69 4.0 12.0 0.00 0.00 0.00 71 943.5
20210804173809 72 80 4.0 11.0 0.00 0.00 0.00 71 943.6
20210804173715 72 47 5.0 12.0 0.00 0.00 0.00 71 943.5
20210804173612 72 55 5.0 12.0 0.00 0.00 0.00 70 943.6
20210804173509 72 76 5.0 12.0 0.00 0.00 0.00 70 943.6
20210804173404 72 74 4.0 12.0 0.00 0.00 0.00 70 943.6
20210804173303 72 72 4.0 12.0 0.00 0.00 0.00 70 943.6
20210804173203 72 32 4.0 12.0 0.00 0.00 0.00 71 943.6
20210804173102 72 59 5.0 12.0 0.00 0.00 0.00 69 943.6
20210804173006 72 60 5.0 12.0 0.00 0.00 0.00 69 943.6
20210804172900 73 33 5.0 12.0 0.00 0.00 0.00 69 943.6
20210804172800 73 55 5.0 12.0 0.00 0.00 0.00 70 943.6
20210804172700 73 47 5.0 10.0 0.00 0.00 0.00 68 943.7
20210804172601 73 76 5.0 10.0 0.00 0.00 0.00 68 943.7
20210804172457 73 74 5.0 10.0 0.00 0.00 0.00 69 943.6
20210804172351 73 78 5.0 10.0 0.00 0.00 0.00 72 943.6
20210804172251 73 67 6.0 11.0 0.00 0.00 0.00 70 943.7
20210804172151 73 63 6.0 11.0 0.00 0.00 0.00 71 943.7
20210804172050 72 90 6.0 11.0 0.00 0.00 0.00 71 943.6
20210804171951 72 54 6.0 11.0 0.00 0.00 0.00 70 943.7
20210804171847 72 88 7.0 11.0 0.00 0.00 0.00 68 943.7
20210804171746 72 107 7.0 13.0 0.00 0.00 0.00 70 943.7
20210804171646 72 57 7.0 13.0 0.00 0.00 0.00 72 943.6
20210804171547 72 105 7.0 13.0 0.00 0.00 0.00 72 943.7
20210804171445 71 69 7.0 13.0 0.00 0.00 0.00 70 943.6
20210804171339 71 65 7.0 13.0 0.00 0.00 0.00 71 943.6
20210804171238 71 82 7.0 13.0 0.00 0.00 0.00 69 943.6
20210804171139 72 103 7.0 13.0 0.00 0.00 0.00 69 943.7
20210804171038 72 86 6.0 13.0 0.00 0.00 0.00 68 943.7
20210804170939 73 101 5.0 13.0 0.00 0.00 0.00 67 943.6
20210804170832 73 95 5.0 13.0 0.00 0.00 0.00 68 943.6
20210804170732 74 90 5.0 13.0 0.00 0.00 0.00 70 943.6
20210804170632 74 98 4.0 13.0 0.00 0.00 0.00 68 943.6
20210804170533 73 64 5.0 13.0 0.00 0.00 0.00 69 943.6
20210804170433 73 69 5.0 13.0 0.00 0.00 0.00 67 943.5
20210804170327 73 71 5.0 13.0 0.00 0.00 0.00 70 943.6
20210804170227 73 29 5.0 13.0 0.00 0.00 0.00 70 943.6
20210804170127 73 41 6.0 13.0 0.00 0.00 0.00 71 943.6
20210804170026 72 37 6.0 13.0 0.00 0.00 0.00 69 943.6
20210804165928 72 28 6.0 13.0 0.00 0.00 0.00 70 943.6
20210804165824 72 47 6.0 13.0 0.00 0.00 0.00 74 943.7
20210804165724 72 88 6.0 13.0 0.00 0.00 0.00 69 943.6
20210804165622 72 106 5.0 13.0 0.00 0.00 0.00 69 943.6
20210804165523 73 69 5.0 13.0 0.00 0.00 0.00 73 943.6
20210804165422 72 78 5.0 10.0 0.00 0.00 0.00 71 943.5
20210804165322 72 66 4.0 10.0 0.00 0.00 0.00 69 943.5
20210804165222 72 84 4.0 10.0 0.00 0.00 0.00 71 943.5
20210804165123 73 85 4.0 10.0 0.00 0.00 0.00 70 943.6
20210804165020 73 104 3.0 10.0 0.00 0.00 0.00 69 943.5
20210804164921 73 94 4.0 9.0 0.00 0.00 0.00 70 943.6
20210804164820 73 64 4.0 13.0 0.00 0.00 0.00 75 943.6
20210804164717 72 72 4.0 13.0 0.00 0.00 0.00 72 943.6
20210804164620 72 26 5.0 13.0 0.00 0.00 0.00 74 943.6
20210804164516 71 61 5.0 13.0 0.00 0.00 0.00 70 943.5
20210804164416 72 69 5.0 13.0 0.00 0.00 0.00 70 943.6
20210804164316 72 51 6.0 13.0 0.00 0.00 0.00 71 943.6
20210804164217 72 51 6.0 13.0 0.00 0.00 0.00 70 943.5
20210804164116 72 24 6.0 13.0 0.00 0.00 0.00 73 943.5
20210804164023 72 61 6.0 13.0 0.00 0.00 0.00 69 943.6
20210804163917 72 73 5.0 13.0 0.00 0.00 0.00 74 943.4
20210804163816 72 68 5.0 9.0 0.00 0.00 0.00 70 943.5
20210804163718 72 80 6.0 9.0 0.00 0.00 0.00 72 943.6
20210804163612 72 98 6.0 9.0 0.00 0.00 0.00 72 943.6
20210804163512 71 84 6.0 10.0 0.00 0.00 0.00 72 943.5
20210804163412 71 57 5.0 10.0 0.00 0.00 0.00 72 943.5
20210804163312 72 113 5.0 10.0 0.00 0.00 0.00 71 943.5
20210804163212 71 92 5.0 10.0 0.00 0.00 0.00 75 943.6
20210804163112 71 82 4.0 10.0 0.00 0.00 0.00 76 943.6
20210804163020 71 83 4.0 10.0 0.00 0.00 0.00 74 943.5
20210804162912 71 119 4.0 10.0 0.00 0.00 0.00 73 943.5
20210804162812 71 132 4.0 10.0 0.00 0.00 0.00 70 943.5
20210804162712 72 101 4.0 11.0 0.00 0.00 0.00 69 943.5
20210804162613 73 98 4.0 11.0 0.00 0.00 0.00 74 943.5
20210804162512 73 102 3.0 11.0 0.00 0.01 0.00 78 943.5
20210804162412 72 65 4.0 11.0 0.00 0.01 0.00 78 943.6
20210804162312 72 38 4.0 11.0 0.00 0.01 0.00 76 943.6
20210804162213 71 5 4.0 11.0 0.00 0.01 0.00 74 943.5
20210804162113 71 18 4.0 11.0 0.00 0.01 0.00 75 943.6
20210804162010 71 65 4.0 11.0 0.00 0.01 0.00 75 943.7
20210804161905 71 0 4.0 11.0 0.00 0.01 0.00 74 944.2
20210804161805 71 78 3.0 11.0 0.00 0.01 0.00 74 943.8
20210804161702 71 95 3.0 8.0 0.00 0.01 0.00 75 943.7
20210804161603 71 37 4.0 10.0 0.00 0.01 0.00 73 943.7
20210804161503 71 346 4.0 10.0 0.00 0.01 0.00 74 943.8
20210804161359 71 329 5.0 10.0 0.00 0.01 0.00 74 943.8
20210804161257 71 46 5.0 10.0 0.00 0.01 0.00 74 943.8
20210804161157 71 325 5.0 10.0 0.00 0.01 0.00 76 943.8
20210804161056 71 55 6.0 10.0 0.00 0.01 0.00 76 943.8
20210804160957 71 65 6.0 10.0 0.00 0.01 0.00 73 943.7
20210804160852 71 19 6.0 10.0 0.00 0.01 0.00 76 943.7
20210804160751 70 121 6.0 10.0 0.00 0.01 0.00 75 943.7
20210804160651 69 30 6.0 12.0 0.00 0.01 0.00 72 943.7
20210804160550 69 75 6.0 12.0 0.00 0.01 0.00 72 943.8
20210804160450 69 121 6.0 12.0 0.00 0.01 0.00 72 943.8
20210804160350 70 117 6.0 12.0 0.00 0.01 0.00 75 943.8
20210804160250 70 119 6.0 12.0 0.00 0.01 0.00 72 943.8
20210804160150 70 84 6.0 12.0 0.00 0.01 0.00 71 943.9
20210804160051 71 111 5.0 12.0 0.00 0.01 0.00 71 943.8
20210804155950 71 69 5.0 12.0 0.00 0.01 0.00 73 943.8
20210804155849 70 31 5.0 12.0 0.00 0.01 0.00 73 943.8
20210804155749 70 72 5.0 12.0 0.00 0.01 0.00 73 943.8
20210804155650 71 103 4.0 12.0 0.00 0.01 0.00 75 943.8
20210804155550 71 110 4.0 12.0 0.00 0.01 0.00 74 943.8
20210804155451 71 107 4.0 12.0 0.00 0.01 0.00 74 943.8
20210804155350 71 92 3.0 12.0 0.00 0.01 0.00 73 943.8
20210804155250 71 74 3.0 12.0 0.00 0.01 0.00 74 943.8
20210804155152 71 68 3.0 12.0 0.00 0.01 0.00 78 943.7
20210804155051 70 59 3.0 12.0 0.00 0.01 0.00 75 943.8
20210804154951 70 0 3.0 12.0 0.00 0.01 0.00 74 943.8
20210804154850 70 329 3.0 9.0 0.00 0.01 0.00 75 943.8
20210804154751 70 24 3.0 9.0 0.00 0.01 0.00 73 943.8
20210804154650 70 347 3.0 9.0 0.00 0.01 0.00 75 943.8
20210804154552 70 291 3.0 10.0 0.00 0.01 0.00 75 943.8
20210804154446 70 12 3.0 10.0 0.00 0.01 0.00 75 943.8
20210804154346 70 330 3.0 10.0 0.00 0.01 0.00 75 943.8
20210804154247 69 18 3.0 10.0 0.00 0.01 0.00 75 943.8
20210804154146 69 49 3.0 10.0 0.00 0.01 0.00 79 943.8